Time,TemperatureF,DewpointF,PressureIn,WindDirection,WindDirectionDegrees,WindSpeedMPH,WindSpeedGustMPH,Humidity,HourlyPrecipIn,Conditions,Clouds,dailyrainin,SoftwareType,DateUTC
2013-09-17 01:39:00,59.2,57.5,30.27,ENE,77,0.0,0.0,94,0.00,,,0.00,Wunderground v.1.15,2013-09-17 05:39:00,
2013-09-17 01:44:00,59.1,57.4,30.27,ENE,77,0.0,0.0,94,0.00,,,0.00,Wunderground v.1.15,2013-09-17 05:44:00,
2013-09-17 01:50:00,59.0,57.3,30.27,ENE,77,0.0,0.0,94,0.00,,,0.00,Wunderground v.1.15,2013-09-17 05:50:00,
2013-09-17 01:54:00,58.9,57.2,30.27,ENE,77,0.0,0.0,94,0.00,,,0.00,Wunderground v.1.15,2013-09-17 05:54:00,
2013-09-17 01:55:00,58.9,57.2,30.27,ENE,77,0.0,0.0,94,0.00,,,0.00,Wunderground v.1.15,2013-09-17 05:55:00,
2013-09-17 01:57:00,58.9,57.2,30.27,ENE,77,0.0,0.0,94,0.00,,,0.00,Wunderground v.1.15,2013-09-17 05:57:00,
2013-09-17 02:03:00,58.7,57.0,30.27,ENE,77,0.0,0.0,94,0.00,,,0.00,Wunderground v.1.15,2013-09-17 06:03:00,
2013-09-17 02:04:00,58.8,57.1,30.27,ENE,77,0.0,0.0,94,0.00,,,0.00,Wunderground v.1.15,2013-09-17 06:04:00,
2013-09-17 02:08:00,58.7,57.0,30.27,ENE,77,0.0,0.0,94,0.00,,,0.00,Wunderground v.1.15,2013-09-17 06:08:00,
2013-09-17 02:11:00,58.6,56.9,30.27,ENE,77,0.0,0.0,94,0.00,,,0.00,Wunderground v.1.15,2013-09-17 06:11:00,
2013-09-17 02:13:00,58.6,56.9,30.27,ENE,77,0.0,0.0,94,0.00,,,0.00,Wunderground v.1.15,2013-09-17 06:13:00,
2013-09-17 02:14:00,58.6,56.9,30.27,ENE,77,0.0,0.0,94,0.00,,,0.00,Wunderground v.1.15,2013-09-17 06:14:00,
2013-09-17 02:18:00,58.5,56.8,30.27,ENE,77,0.0,0.0,94,0.00,,,0.00,Wunderground v.1.15,2013-09-17 06:18:00,
2013-09-17 02:24:00,58.5,56.8,30.27,ENE,77,0.0,0.0,94,0.00,,,0.00,Wunderground v.1.15,2013-09-17 06:24:00,
2013-09-17 02:29:00,58.5,56.8,30.27,ENE,77,0.0,0.0,94,0.00,,,0.00,Wunderground v.1.15,2013-09-17 06:29:00,
2013-09-17 02:31:00,58.5,56.8,30.27,ENE,77,0.0,0.0,94,0.00,,,0.00,Wunderground v.1.15,2013-09-17 06:31:00,
2013-09-17 02:34:00,58.4,56.7,30.27,ENE,77,0.0,0.0,94,0.00,,,0.00,Wunderground v.1.15,2013-09-17 06:34:00,
2013-09-17 02:37:00,58.4,56.7,30.27,ENE,77,0.0,0.0,94,0.00,,,0.00,Wunderground v.1.15,2013-09-17 06:37:00,
2013-09-17 02:40:00,58.4,56.7,30.27,ENE,77,0.0,0.0,94,0.00,,,0.00,Wunderground v.1.15,2013-09-17 06:40:00,
2013-09-17 02:45:00,58.3,56.6,30.26,ENE,77,0.0,0.0,94,0.00,,,0.00,Wunderground v.1.15,2013-09-17 06:45:00,
2013-09-17 02:47:00,58.2,56.5,30.27,ENE,77,0.0,0.0,94,0.00,,,0.00,Wunderground v.1.15,2013-09-17 06:47:00,
2013-09-17 02:49:00,58.2,56.5,30.27,ENE,77,0.0,0.0,94,0.00,,,0.00,Wunderground v.1.15,2013-09-17 06:49:00,
2013-09-17 02:52:00,58.2,56.5,30.27,ENE,77,0.0,0.0,94,0.00,,,0.00,Wunderground v.1.15,2013-09-17 06:52:00,
2013-09-17 02:54:00,58.1,56.4,30.27,ENE,77,0.0,0.0,94,0.00,,,0.00,Wunderground v.1.15,2013-09-17 06:54:00,
2013-09-17 02:57:00,58.1,56.4,30.27,ENE,77,0.0,0.0,94,0.00,,,0.00,Wunderground v.1.15,2013-09-17 06:57:00,
2013-09-17 02:58:00,58.1,56.4,30.27,ENE,77,0.0,0.0,94,0.00,,,0.00,Wunderground v.1.15,2013-09-17 06:58:00,
2013-09-17 02:59:00,58.0,56.3,30.27,ENE,77,0.0,0.0,94,0.00,,,0.00,Wunderground v.1.15,2013-09-17 06:59:00,
2013-09-17 03:00:00,58.0,56.3,30.26,ENE,77,0.0,0.0,94,0.00,,,0.00,Wunderground v.1.15,2013-09-17 07:00:00,
2013-09-17 03:05:00,58.0,56.3,30.27,ENE,77,0.0,0.0,94,0.00,,,0.00,Wunderground v.1.15,2013-09-17 07:05:00,
2013-09-17 03:06:00,58.0,56.3,30.26,ENE,77,0.0,0.0,94,0.00,,,0.00,Wunderground v.1.15,2013-09-17 07:06:00,
2013-09-17 03:09:00,58.0,56.3,30.26,ENE,77,0.0,0.0,94,0.00,,,0.00,Wunderground v.1.15,2013-09-17 07:09:00,
2013-09-17 03:11:00,57.9,56.2,30.26,ENE,77,0.0,0.0,94,0.00,,,0.00,Wunderground v.1.15,2013-09-17 07:11:00,
2013-09-17 03:13:00,57.8,56.1,30.26,ENE,77,0.0,0.0,94,0.00,,,0.00,Wunderground v.1.15,2013-09-17 07:13:00,
2013-09-17 03:16:00,57.9,56.2,30.26,ENE,77,0.0,0.0,94,0.00,,,0.00,Wunderground v.1.15,2013-09-17 07:16:00,
2013-09-17 03:18:00,57.8,56.1,30.26,ENE,77,0.0,0.0,94,0.00,,,0.00,Wunderground v.1.15,2013-09-17 07:18:00,
2013-09-17 03:19:00,57.8,56.1,30.26,ENE,77,0.0,0.0,94,0.00,,,0.00,Wunderground v.1.15,2013-09-17 07:19:00,
2013-09-17 03:20:00,57.8,56.1,30.27,ENE,77,0.0,0.0,94,0.00,,,0.00,Wunderground v.1.15,2013-09-17 07:20:00,
2013-09-17 03:24:00,57.7,56.0,30.27,ENE,77,0.0,0.0,94,0.00,,,0.00,Wunderground v.1.15,2013-09-17 07:24:00,
2013-09-17 03:26:00,57.7,56.0,30.26,ENE,77,0.0,0.0,94,0.00,,,0.00,Wunderground v.1.15,2013-09-17 07:26:00,
2013-09-17 03:29:00,57.7,56.3,30.26,ENE,77,0.0,1.0,95,0.00,,,0.00,Wunderground v.1.15,2013-09-17 07:29:00,
2013-09-17 03:31:00,57.7,56.3,30.26,ENE,77,0.0,1.0,95,0.00,,,0.00,Wunderground v.1.15,2013-09-17 07:31:00,
2013-09-17 03:36:00,57.7,56.3,30.26,ENE,77,0.0,0.0,95,0.00,,,0.00,Wunderground v.1.15,2013-09-17 07:36:00,
2013-09-17 03:39:00,57.7,56.3,30.26,ENE,77,0.0,0.0,95,0.00,,,0.00,Wunderground v.1.15,2013-09-17 07:39:00,
2013-09-17 03:41:00,57.7,56.3,30.26,ENE,77,0.0,0.0,95,0.00,,,0.00,Wunderground v.1.15,2013-09-17 07:41:00,
2013-09-17 03:42:00,57.7,56.3,30.26,ENE,77,0.0,0.0,95,0.00,,,0.00,Wunderground v.1.15,2013-09-17 07:42:00,
2013-09-17 03:44:00,57.7,56.3,30.26,ENE,77,0.0,1.0,95,0.00,,,0.00,Wunderground v.1.15,2013-09-17 07:44:00,
2013-09-17 03:48:00,57.6,56.2,30.26,ENE,77,0.0,2.0,95,0.00,,,0.00,Wunderground v.1.15,2013-09-17 07:48:00,
2013-09-17 03:50:00,57.6,56.2,30.26,ENE,77,0.0,2.0,95,0.00,,,0.00,Wunderground v.1.15,2013-09-17 07:50:00,
2013-09-17 03:51:00,57.7,56.3,30.26,ENE,77,0.0,2.0,95,0.00,,,0.00,Wunderground v.1.15,2013-09-17 07:51:00,
2013-09-17 03:55:00,57.6,56.2,30.26,ENE,77,0.0,0.0,95,0.00,,,0.00,Wunderground v.1.15,2013-09-17 07:55:00,
2013-09-17 03:57:00,57.6,56.2,30.26,ENE,77,0.0,0.0,95,0.00,,,0.00,Wunderground v.1.15,2013-09-17 07:57:00,
2013-09-17 04:00:00,57.6,56.2,30.26,ENE,77,0.0,0.0,95,0.00,,,0.00,Wunderground v.1.15,2013-09-17 08:00:00,
2013-09-17 04:01:00,57.6,56.2,30.26,ENE,77,0.0,0.0,95,0.00,,,0.00,Wunderground v.1.15,2013-09-17 08:01:00,
2013-09-17 04:02:00,57.6,56.2,30.26,ENE,77,0.0,1.0,95,0.00,,,0.00,Wunderground v.1.15,2013-09-17 08:02:00,
2013-09-17 04:03:00,57.6,56.2,30.26,ENE,77,0.0,1.0,95,0.00,,,0.00,Wunderground v.1.15,2013-09-17 08:03:00,
2013-09-17 04:07:00,57.7,56.3,30.26,ENE,77,0.0,0.0,95,0.00,,,0.00,Wunderground v.1.15,2013-09-17 08:07:00,
2013-09-17 04:08:00,57.7,56.3,30.26,ENE,77,0.0,0.0,95,0.00,,,0.00,Wunderground v.1.15,2013-09-17 08:08:00,
2013-09-17 04:10:00,57.8,56.4,30.26,ENE,77,0.0,0.0,95,0.00,,,0.00,Wunderground v.1.15,2013-09-17 08:10:00,
2013-09-17 04:12:00,57.8,56.4,30.26,ENE,77,0.0,0.0,95,0.00,,,0.00,Wunderground v.1.15,2013-09-17 08:12:00,
2013-09-17 04:16:00,57.9,56.5,30.26,ENE,77,0.0,0.0,95,0.00,,,0.00,Wunderground v.1.15,2013-09-17 08:16:00,
2013-09-17 04:18:00,57.9,56.5,30.26,ENE,77,0.0,0.0,95,0.00,,,0.00,Wunderground v.1.15,2013-09-17 08:18:00,
2013-09-17 04:19:00,57.9,56.5,30.26,ENE,77,0.0,0.0,95,0.00,,,0.00,Wunderground v.1.15,2013-09-17 08:19:00,
2013-09-17 04:21:00,57.9,56.5,30.26,ENE,77,0.0,0.0,95,0.00,,,0.00,Wunderground v.1.15,2013-09-17 08:21:00,
2013-09-17 04:23:00,58.0,56.3,30.26,ENE,77,0.0,0.0,94,0.00,,,0.00,Wunderground v.1.15,2013-09-17 08:23:00,
2013-09-17 04:26:00,58.0,56.3,30.26,ENE,77,0.0,0.0,94,0.00,,,0.00,Wunderground v.1.15,2013-09-17 08:26:00,
2013-09-17 04:28:00,58.0,56.3,30.26,ENE,77,0.0,0.0,94,0.00,,,0.00,Wunderground v.1.15,2013-09-17 08:28:00,
2013-09-17 04:29:00,58.0,56.3,30.26,ENE,77,0.0,0.0,94,0.00,,,0.00,Wunderground v.1.15,2013-09-17 08:29:00,
2013-09-17 04:32:00,58.0,56.3,30.26,ENE,77,0.0,0.0,94,0.00,,,0.00,Wunderground v.1.15,2013-09-17 08:32:00,
2013-09-17 04:37:00,58.1,56.4,30.26,ENE,77,0.0,0.0,94,0.00,,,0.00,Wunderground v.1.15,2013-09-17 08:37:00,
2013-09-17 04:38:00,58.1,56.4,30.27,ENE,77,0.0,1.0,94,0.00,,,0.00,Wunderground v.1.15,2013-09-17 08:38:00,
2013-09-17 04:39:00,58.2,56.5,30.27,ENE,77,0.0,1.0,94,0.00,,,0.00,Wunderground v.1.15,2013-09-17 08:39:00,
2013-09-17 04:43:00,58.2,56.5,30.26,ENE,77,0.0,1.0,94,0.00,,,0.00,Wunderground v.1.15,2013-09-17 08:43:00,
2013-09-17 04:45:00,58.2,56.5,30.26,ENE,77,0.0,1.0,94,0.00,,,0.00,Wunderground v.1.15,2013-09-17 08:45:00,
2013-09-17 04:46:00,58.3,56.6,30.26,ENE,77,0.0,2.0,94,0.00,,,0.00,Wunderground v.1.15,2013-09-17 08:46:00,
2013-09-17 04:48:00,58.3,56.6,30.26,ENE,77,0.0,2.0,94,0.00,,,0.00,Wunderground v.1.15,2013-09-17 08:48:00,
2013-09-17 04:50:00,58.3,56.3,30.26,ENE,77,1.0,2.0,93,0.00,,,0.00,Wunderground v.1.15,2013-09-17 08:50:00,
2013-09-17 04:52:00,58.3,56.3,30.26,ENE,77,1.0,2.0,93,0.00,,,0.00,Wunderground v.1.15,2013-09-17 08:52:00,
2013-09-17 04:55:00,58.3,56.3,30.26,ENE,77,1.0,2.0,93,0.00,,,0.00,Wunderground v.1.15,2013-09-17 08:55:00,
2013-09-17 04:58:00,58.3,56.3,30.26,ENE,77,0.0,1.0,93,0.00,,,0.00,Wunderground v.1.15,2013-09-17 08:58:00,
2013-09-17 04:59:00,58.2,56.2,30.26,ENE,77,0.0,1.0,93,0.00,,,0.00,Wunderground v.1.15,2013-09-17 08:59:00,
2013-09-17 05:00:00,58.2,56.2,30.26,ENE,77,0.0,1.0,93,0.00,,,0.00,Wunderground v.1.15,2013-09-17 09:00:00,
2013-09-17 05:02:00,58.2,56.2,30.26,NNE,32,0.0,2.0,93,0.00,,,0.00,Wunderground v.1.15,2013-09-17 09:02:00,
2013-09-17 05:05:00,58.2,56.2,30.26,NNE,32,0.0,2.0,93,0.00,,,0.00,Wunderground v.1.15,2013-09-17 09:05:00,
2013-09-17 05:07:00,58.2,56.2,30.26,NNE,32,0.0,1.0,93,0.00,,,0.00,Wunderground v.1.15,2013-09-17 09:07:00,
2013-09-17 05:08:00,58.2,56.2,30.26,NNE,32,0.0,1.0,93,0.00,,,0.00,Wunderground v.1.15,2013-09-17 09:08:00,
2013-09-17 05:12:00,58.2,55.9,30.26,NNE,32,0.0,1.0,92,0.00,,,0.00,Wunderground v.1.15,2013-09-17 09:12:00,
2013-09-17 05:14:00,58.2,55.9,30.26,NNE,32,0.0,1.0,92,0.00,,,0.00,Wunderground v.1.15,2013-09-17 09:14:00,
2013-09-17 05:15:00,58.2,55.9,30.26,NE,41,0.0,0.0,92,0.00,,,0.00,Wunderground v.1.15,2013-09-17 09:15:00,
2013-09-17 05:16:00,58.2,55.9,30.26,NE,41,0.0,1.0,92,0.00,,,0.00,Wunderground v.1.15,2013-09-17 09:16:00,
2013-09-17 05:19:00,58.2,55.9,30.26,NE,44,0.0,2.0,92,0.00,,,0.00,Wunderground v.1.15,2013-09-17 09:19:00,
2013-09-17 05:21:00,58.2,55.9,30.26,NE,51,0.0,2.0,92,0.00,,,0.00,Wunderground v.1.15,2013-09-17 09:21:00,
2013-09-17 05:22:00,58.2,55.9,30.26,NE,51,1.0,2.0,92,0.00,,,0.00,Wunderground v.1.15,2013-09-17 09:22:00,
2013-09-17 05:25:00,58.1,55.8,30.26,NE,51,1.0,1.0,92,0.00,,,0.00,Wunderground v.1.15,2013-09-17 09:25:00,
2013-09-17 05:27:00,58.1,55.8,30.26,NE,51,1.0,1.0,92,0.00,,,0.00,Wunderground v.1.15,2013-09-17 09:27:00,
2013-09-17 05:28:00,58.0,55.7,30.26,NE,51,0.0,1.0,92,0.00,,,0.00,Wunderground v.1.15,2013-09-17 09:28:00,
2013-09-17 05:31:00,58.0,55.7,30.26,NE,51,0.0,1.0,92,0.00,,,0.00,Wunderground v.1.15,2013-09-17 09:31:00,
2013-09-17 05:33:00,57.9,55.6,30.26,NE,52,0.0,2.0,92,0.00,,,0.00,Wunderground v.1.15,2013-09-17 09:33:00,
2013-09-17 05:37:00,57.8,55.5,30.26,NE,52,1.0,2.0,92,0.00,,,0.00,Wunderground v.1.15,2013-09-17 09:37:00,
2013-09-17 05:38:00,57.8,55.5,30.26,NE,52,1.0,2.0,92,0.00,,,0.00,Wunderground v.1.15,2013-09-17 09:38:00,
2013-09-17 05:40:00,57.8,55.5,30.26,NE,52,1.0,2.0,92,0.00,,,0.00,Wunderground v.1.15,2013-09-17 09:40:00,
2013-09-17 05:41:00,57.8,55.5,30.26,NE,52,1.0,2.0,92,0.00,,,0.00,Wunderground v.1.15,2013-09-17 09:41:00,
2013-09-17 05:46:00,57.7,55.4,30.26,ENE,59,1.0,1.0,92,0.00,,,0.00,Wunderground v.1.15,2013-09-17 09:46:00,
2013-09-17 05:47:00,57.6,55.3,30.26,ENE,59,1.0,1.0,92,0.00,,,0.00,Wunderground v.1.15,2013-09-17 09:47:00,
2013-09-17 05:51:00,57.6,55.3,30.26,ENE,59,1.0,1.0,92,0.00,,,0.00,Wunderground v.1.15,2013-09-17 09:51:00,
2013-09-17 05:53:00,57.6,55.3,30.26,ENE,59,1.0,1.0,92,0.00,,,0.00,Wunderground v.1.15,2013-09-17 09:53:00,
2013-09-17 05:56:00,57.5,55.2,30.26,ENE,59,1.0,1.0,92,0.00,,,0.00,Wunderground v.1.15,2013-09-17 09:56:00,
2013-09-17 05:58:00,57.5,55.2,30.26,ENE,59,1.0,1.0,92,0.00,,,0.00,Wunderground v.1.15,2013-09-17 09:58:00,
2013-09-17 05:59:00,57.5,55.2,30.26,ENE,59,1.0,1.0,92,0.00,,,0.00,Wunderground v.1.15,2013-09-17 09:59:00,
2013-09-17 06:01:00,57.4,55.1,30.26,ENE,59,1.0,1.0,92,0.00,,,0.00,Wunderground v.1.15,2013-09-17 10:01:00,
2013-09-17 06:02:00,57.4,55.1,30.26,ENE,59,1.0,1.0,92,0.00,,,0.00,Wunderground v.1.15,2013-09-17 10:02:00,
2013-09-17 06:04:00,57.4,55.1,30.26,ENE,59,1.0,1.0,92,0.00,,,0.00,Wunderground v.1.15,2013-09-17 10:04:00,
2013-09-17 06:06:00,57.4,55.1,30.26,ENE,59,1.0,1.0,92,0.00,,,0.00,Wunderground v.1.15,2013-09-17 10:06:00,
2013-09-17 06:07:00,57.4,55.1,30.26,ENE,59,1.0,1.0,92,0.00,,,0.00,Wunderground v.1.15,2013-09-17 10:07:00,
2013-09-17 06:10:00,57.3,55.0,30.26,ENE,59,1.0,2.0,92,0.00,,,0.00,Wunderground v.1.15,2013-09-17 10:10:00,
2013-09-17 06:12:00,57.3,55.0,30.27,ENE,59,1.0,2.0,92,0.00,,,0.00,Wunderground v.1.15,2013-09-17 10:12:00,
2013-09-17 06:13:00,57.3,55.0,30.27,ENE,59,1.0,2.0,92,0.00,,,0.00,Wunderground v.1.15,2013-09-17 10:13:00,
2013-09-17 06:16:00,57.3,55.0,30.26,ENE,59,1.0,1.0,92,0.00,,,0.00,Wunderground v.1.15,2013-09-17 10:16:00,
2013-09-17 06:17:00,57.2,54.9,30.26,ENE,59,1.0,2.0,92,0.00,,,0.00,Wunderground v.1.15,2013-09-17 10:17:00,
2013-09-17 06:21:00,57.1,54.8,30.27,East,80,1.0,2.0,92,0.00,,,0.00,Wunderground v.1.15,2013-09-17 10:21:00,
2013-09-17 06:24:00,57.1,54.8,30.27,East,80,1.0,2.0,92,0.00,,,0.00,Wunderground v.1.15,2013-09-17 10:24:00,
2013-09-17 06:26:00,57.1,54.8,30.27,East,80,1.0,1.0,92,0.00,,,0.00,Wunderground v.1.15,2013-09-17 10:26:00,
2013-09-17 06:27:00,57.1,54.8,30.27,East,80,1.0,1.0,92,0.00,,,0.00,Wunderground v.1.15,2013-09-17 10:27:00,
2013-09-17 06:28:00,57.0,54.7,30.27,East,80,1.0,1.0,92,0.00,,,0.00,Wunderground v.1.15,2013-09-17 10:28:00,
2013-09-17 06:30:00,57.1,54.8,30.27,East,80,1.0,1.0,92,0.00,,,0.00,Wunderground v.1.15,2013-09-17 10:30:00,
2013-09-17 06:35:00,57.0,54.7,30.27,East,80,1.0,2.0,92,0.00,,,0.00,Wunderground v.1.15,2013-09-17 10:35:00,
2013-09-17 06:36:00,56.9,54.6,30.27,East,80,1.0,1.0,92,0.00,,,0.00,Wunderground v.1.15,2013-09-17 10:36:00,
2013-09-17 06:37:00,56.9,54.6,30.27,East,80,1.0,1.0,92,0.00,,,0.00,Wunderground v.1.15,2013-09-17 10:37:00,
2013-09-17 06:39:00,56.9,54.6,30.27,East,80,1.0,1.0,92,0.00,,,0.00,Wunderground v.1.15,2013-09-17 10:39:00,
2013-09-17 06:41:00,56.9,54.6,30.27,East,80,1.0,1.0,92,0.00,,,0.00,Wunderground v.1.15,2013-09-17 10:41:00,
2013-09-17 06:42:00,56.9,54.6,30.27,East,80,1.0,1.0,92,0.00,,,0.00,Wunderground v.1.15,2013-09-17 10:42:00,
2013-09-17 06:43:00,56.8,54.5,30.27,East,80,1.0,1.0,92,0.00,,,0.00,Wunderground v.1.15,2013-09-17 10:43:00,
2013-09-17 06:45:00,56.8,54.5,30.27,East,80,1.0,1.0,92,0.00,,,0.00,Wunderground v.1.15,2013-09-17 10:45:00,
2013-09-17 06:47:00,56.7,54.4,30.27,East,80,0.0,1.0,92,0.00,,,0.00,Wunderground v.1.15,2013-09-17 10:47:00,
2013-09-17 06:50:00,56.7,54.4,30.27,East,80,0.0,1.0,92,0.00,,,0.00,Wunderground v.1.15,2013-09-17 10:50:00,
2013-09-17 06:53:00,56.6,54.3,30.27,East,80,1.0,1.0,92,0.00,,,0.00,Wunderground v.1.15,2013-09-17 10:53:00,
2013-09-17 06:54:00,56.6,54.3,30.27,East,80,1.0,1.0,92,0.00,,,0.00,Wunderground v.1.15,2013-09-17 10:54:00,
2013-09-17 07:00:00,56.4,54.1,30.27,East,80,1.0,1.0,92,0.00,,,0.00,Wunderground v.1.15,2013-09-17 11:00:00,
2013-09-17 07:01:00,56.4,54.1,30.27,East,80,0.0,1.0,92,0.00,,,0.00,Wunderground v.1.15,2013-09-17 11:01:00,
2013-09-17 07:02:00,56.4,54.1,30.27,East,80,0.0,1.0,92,0.00,,,0.00,Wunderground v.1.15,2013-09-17 11:02:00,
2013-09-17 07:06:00,56.3,54.0,30.27,East,80,0.0,1.0,92,0.00,,,0.00,Wunderground v.1.15,2013-09-17 11:06:00,
2013-09-17 07:10:00,56.3,54.0,30.27,East,80,0.0,1.0,92,0.00,,,0.00,Wunderground v.1.15,2013-09-17 11:10:00,
2013-09-17 07:11:00,56.2,53.9,30.27,East,80,0.0,1.0,92,0.00,,,0.00,Wunderground v.1.15,2013-09-17 11:11:00,
2013-09-17 07:14:00,56.2,53.9,30.27,East,80,0.0,1.0,92,0.00,,,0.00,Wunderground v.1.15,2013-09-17 11:14:00,
2013-09-17 07:15:00,56.2,53.9,30.27,East,80,0.0,0.0,92,0.00,,,0.00,Wunderground v.1.15,2013-09-17 11:15:00,
2013-09-17 07:17:00,56.1,53.8,30.27,East,80,0.0,0.0,92,0.00,,,0.00,Wunderground v.1.15,2013-09-17 11:17:00,
2013-09-17 07:20:00,56.0,53.7,30.27,East,80,0.0,0.0,92,0.00,,,0.00,Wunderground v.1.15,2013-09-17 11:20:00,
2013-09-17 07:22:00,56.0,53.7,30.27,East,80,0.0,0.0,92,0.00,,,0.00,Wunderground v.1.15,2013-09-17 11:22:00,
2013-09-17 07:23:00,56.0,54.0,30.27,East,80,0.0,0.0,93,0.00,,,0.00,Wunderground v.1.15,2013-09-17 11:23:00,
2013-09-17 07:27:00,55.9,53.9,30.28,East,80,0.0,0.0,93,0.00,,,0.00,Wunderground v.1.15,2013-09-17 11:27:00,
2013-09-17 07:29:00,55.8,53.8,30.28,East,80,0.0,0.0,93,0.00,,,0.00,Wunderground v.1.15,2013-09-17 11:29:00,
2013-09-17 07:30:00,55.8,53.8,30.28,East,80,0.0,0.0,93,0.00,,,0.00,Wunderground v.1.15,2013-09-17 11:30:00,
2013-09-17 07:35:00,55.6,53.6,30.28,East,80,0.0,0.0,93,0.00,,,0.00,Wunderground v.1.15,2013-09-17 11:35:00,
2013-09-17 07:36:00,55.6,53.6,30.28,East,80,0.0,0.0,93,0.00,,,0.00,Wunderground v.1.15,2013-09-17 11:36:00,
2013-09-17 07:39:00,55.4,53.4,30.28,East,80,0.0,0.0,93,0.00,,,0.00,Wunderground v.1.15,2013-09-17 11:39:00,
2013-09-17 07:42:00,55.4,53.4,30.28,East,80,0.0,0.0,93,0.00,,,0.00,Wunderground v.1.15,2013-09-17 11:42:00,
2013-09-17 07:45:00,55.4,53.4,30.28,East,80,0.0,0.0,93,0.00,,,0.00,Wunderground v.1.15,2013-09-17 11:45:00,
2013-09-17 07:47:00,55.3,53.6,30.28,East,80,0.0,0.0,94,0.00,,,0.00,Wunderground v.1.15,2013-09-17 11:47:00,
2013-09-17 07:51:00,55.3,53.6,30.28,East,80,0.0,0.0,94,0.00,,,0.00,Wunderground v.1.15,2013-09-17 11:51:00,
2013-09-17 07:53:00,55.2,53.2,30.28,East,80,0.0,0.0,93,0.00,,,0.00,Wunderground v.1.15,2013-09-17 11:53:00,
2013-09-17 07:56:00,55.2,53.2,30.28,East,80,0.0,0.0,93,0.00,,,0.00,Wunderground v.1.15,2013-09-17 11:56:00,
2013-09-17 08:00:00,55.1,53.4,30.28,East,80,0.0,0.0,94,0.00,,,0.00,Wunderground v.1.15,2013-09-17 12:00:00,
2013-09-17 08:02:00,55.0,53.3,30.28,East,80,0.0,0.0,94,0.00,,,0.00,Wunderground v.1.15,2013-09-17 12:02:00,
2013-09-17 08:04:00,55.0,53.3,30.28,East,80,0.0,0.0,94,0.00,,,0.00,Wunderground v.1.15,2013-09-17 12:04:00,
2013-09-17 08:10:00,55.0,53.3,30.28,East,80,0.0,0.0,94,0.00,,,0.00,Wunderground v.1.15,2013-09-17 12:10:00,
2013-09-17 08:11:00,55.0,53.3,30.29,East,80,0.0,0.0,94,0.00,,,0.00,Wunderground v.1.15,2013-09-17 12:11:00,
2013-09-17 08:15:00,55.0,53.3,30.29,East,80,0.0,0.0,94,0.00,,,0.00,Wunderground v.1.15,2013-09-17 12:15:00,
2013-09-17 08:20:00,55.0,53.3,30.29,East,80,0.0,0.0,94,0.00,,,0.00,Wunderground v.1.15,2013-09-17 12:20:00,
2013-09-17 08:24:00,55.1,53.4,30.29,East,96,0.0,2.0,94,0.00,,,0.00,Wunderground v.1.15,2013-09-17 12:24:00,
2013-09-17 08:25:00,55.1,53.4,30.29,East,96,0.0,0.0,94,0.00,,,0.00,Wunderground v.1.15,2013-09-17 12:25:00,
2013-09-17 08:26:00,55.1,53.4,30.29,East,96,0.0,0.0,94,0.00,,,0.00,Wunderground v.1.15,2013-09-17 12:26:00,
2013-09-17 08:30:00,55.1,53.4,30.29,East,96,0.0,0.0,94,0.00,,,0.00,Wunderground v.1.15,2013-09-17 12:30:00,
2013-09-17 08:32:00,55.2,53.8,30.29,East,96,0.0,0.0,95,0.00,,,0.00,Wunderground v.1.15,2013-09-17 12:32:00,
2013-09-17 08:36:00,55.3,53.6,30.29,East,95,0.0,0.0,94,0.00,,,0.00,Wunderground v.1.15,2013-09-17 12:36:00,
2013-09-17 08:39:00,55.4,54.0,30.29,East,95,0.0,0.0,95,0.00,,,0.00,Wunderground v.1.15,2013-09-17 12:39:00,
2013-09-17 08:44:00,55.5,54.1,30.29,East,95,0.0,0.0,95,0.00,,,0.00,Wunderground v.1.15,2013-09-17 12:44:00,
2013-09-17 08:46:00,55.5,54.1,30.29,East,95,0.0,0.0,95,0.00,,,0.00,Wunderground v.1.15,2013-09-17 12:46:00,
2013-09-17 08:48:00,55.6,54.2,30.29,East,95,0.0,0.0,95,0.00,,,0.00,Wunderground v.1.15,2013-09-17 12:48:00,
2013-09-17 08:49:00,55.6,54.2,30.29,East,95,0.0,0.0,95,0.00,,,0.00,Wunderground v.1.15,2013-09-17 12:49:00,
2013-09-17 08:51:00,55.7,54.3,30.29,East,95,0.0,0.0,95,0.00,,,0.00,Wunderground v.1.15,2013-09-17 12:51:00,
2013-09-17 08:55:00,55.8,54.4,30.29,East,95,0.0,0.0,95,0.00,,,0.00,Wunderground v.1.15,2013-09-17 12:55:00,
2013-09-17 08:58:00,55.9,54.5,30.29,NNW,336,0.0,1.0,95,0.00,,,0.00,Wunderground v.1.15,2013-09-17 12:58:00,
2013-09-17 09:00:00,56.0,54.6,30.29,NNW,337,0.0,1.0,95,0.00,,,0.00,Wunderground v.1.15,2013-09-17 13:00:00,
2013-09-17 09:02:00,56.1,54.7,30.29,NNW,342,0.0,1.0,95,0.00,,,0.00,Wunderground v.1.15,2013-09-17 13:02:00,
2013-09-17 09:08:00,56.4,55.0,30.29,NE,37,0.0,0.0,95,0.00,,,0.00,Wunderground v.1.15,2013-09-17 13:08:00,
2013-09-17 09:10:00,56.5,55.1,30.29,NE,37,0.0,0.0,95,0.00,,,0.00,Wunderground v.1.15,2013-09-17 13:10:00,
2013-09-17 09:12:00,56.6,55.2,30.29,NE,37,0.0,0.0,95,0.00,,,0.00,Wunderground v.1.15,2013-09-17 13:12:00,
2013-09-17 09:14:00,56.6,55.2,30.29,NE,37,0.0,0.0,95,0.00,,,0.00,Wunderground v.1.15,2013-09-17 13:14:00,
2013-09-17 09:15:00,56.7,55.3,30.29,NE,37,0.0,0.0,95,0.00,,,0.00,Wunderground v.1.15,2013-09-17 13:15:00,
2013-09-17 09:16:00,56.8,55.1,30.29,NE,37,0.0,0.0,94,0.00,,,0.00,Wunderground v.1.15,2013-09-17 13:16:00,
2013-09-17 09:17:00,56.8,55.1,30.29,NE,37,0.0,0.0,94,0.00,,,0.00,Wunderground v.1.15,2013-09-17 13:17:00,
2013-09-17 09:21:00,57.0,55.3,30.29,NE,37,0.0,1.0,94,0.00,,,0.00,Wunderground v.1.15,2013-09-17 13:21:00,
2013-09-17 09:24:00,57.2,55.5,30.29,NE,37,0.0,1.0,94,0.00,,,0.00,Wunderground v.1.15,2013-09-17 13:24:00,
2013-09-17 09:28:00,57.6,55.9,30.29,NE,38,0.0,1.0,94,0.00,,,0.00,Wunderground v.1.15,2013-09-17 13:28:00,
2013-09-17 09:29:00,57.7,55.7,30.29,NE,38,0.0,1.0,93,0.00,,,0.00,Wunderground v.1.15,2013-09-17 13:29:00,
2013-09-17 09:31:00,58.0,56.0,30.29,NE,38,0.0,1.0,93,0.00,,,0.00,Wunderground v.1.15,2013-09-17 13:31:00,
2013-09-17 09:35:00,58.3,56.3,30.29,NE,38,0.0,1.0,93,0.00,,,0.00,Wunderground v.1.15,2013-09-17 13:35:00,
2013-09-17 09:37:00,58.5,56.5,30.30,NE,40,0.0,1.0,93,0.00,,,0.00,Wunderground v.1.15,2013-09-17 13:37:00,
2013-09-17 09:39:00,58.7,56.4,30.29,NE,40,0.0,1.0,92,0.00,,,0.00,Wunderground v.1.15,2013-09-17 13:39:00,
2013-09-17 09:42:00,58.9,56.3,30.30,SE,125,0.0,1.0,91,0.00,,,0.00,Wunderground v.1.15,2013-09-17 13:42:00,
2013-09-17 09:45:00,59.3,56.4,30.29,ENE,65,1.0,3.0,90,0.00,,,0.00,Wunderground v.1.15,2013-09-17 13:45:00,
2013-09-17 09:46:00,59.6,56.4,30.29,South,175,1.0,1.0,89,0.00,,,0.00,Wunderground v.1.15,2013-09-17 13:46:00,
2013-09-17 09:48:00,59.7,56.1,30.29,North,360,1.0,4.0,88,0.00,,,0.00,Wunderground v.1.15,2013-09-17 13:48:00,
2013-09-17 09:50:00,60.0,56.1,30.29,WNW,297,1.0,4.0,87,0.00,,,0.00,Wunderground v.1.15,2013-09-17 13:50:00,
2013-09-17 09:52:00,60.2,56.3,30.29,ESE,105,1.0,4.0,87,0.00,,,0.00,Wunderground v.1.15,2013-09-17 13:52:00,
2013-09-17 09:54:00,60.2,56.0,30.29,ESE,105,1.0,4.0,86,0.00,,,0.00,Wunderground v.1.15,2013-09-17 13:54:00,
2013-09-17 09:56:00,60.4,56.2,30.29,ENE,76,1.0,2.0,86,0.00,,,0.00,Wunderground v.1.15,2013-09-17 13:56:00,
2013-09-17 09:57:00,60.5,56.3,30.29,ENE,76,1.0,2.0,86,0.00,,,0.00,Wunderground v.1.15,2013-09-17 13:57:00,
2013-09-17 09:58:00,60.6,56.4,30.29,ENE,76,1.0,2.0,86,0.00,,,0.00,Wunderground v.1.15,2013-09-17 13:58:00,
2013-09-17 10:01:00,60.8,56.6,30.29,East,86,1.0,2.0,86,0.00,,,0.00,Wunderground v.1.15,2013-09-17 14:01:00,
2013-09-17 10:03:00,61.0,56.8,30.29,East,86,1.0,2.0,86,0.00,,,0.00,Wunderground v.1.15,2013-09-17 14:03:00,
2013-09-17 10:05:00,61.2,57.3,30.29,East,86,1.0,1.0,87,0.00,,,0.00,Wunderground v.1.15,2013-09-17 14:05:00,
2013-09-17 10:09:00,61.4,57.5,30.29,East,86,0.0,1.0,87,0.00,,,0.00,Wunderground v.1.15,2013-09-17 14:09:00,
2013-09-17 10:11:00,61.6,57.4,30.29,ENE,78,0.0,1.0,86,0.00,,,0.00,Wunderground v.1.15,2013-09-17 14:11:00,
2013-09-17 10:12:00,61.6,57.0,30.29,ENE,78,0.0,1.0,85,0.00,,,0.00,Wunderground v.1.15,2013-09-17 14:12:00,
2013-09-17 10:14:00,61.6,57.0,30.30,ENE,78,0.0,1.0,85,0.00,,,0.00,Wunderground v.1.15,2013-09-17 14:14:00,
2013-09-17 10:18:00,61.8,57.2,30.30,ENE,78,0.0,1.0,85,0.00,,,0.00,Wunderground v.1.15,2013-09-17 14:18:00,
2013-09-17 10:19:00,61.7,57.1,30.30,ENE,78,0.0,1.0,85,0.00,,,0.00,Wunderground v.1.15,2013-09-17 14:19:00,
2013-09-17 10:24:00,61.8,56.9,30.30,NE,34,1.0,2.0,84,0.00,,,0.00,Wunderground v.1.15,2013-09-17 14:24:00,
2013-09-17 10:25:00,61.9,57.0,30.30,NE,34,1.0,1.0,84,0.00,,,0.00,Wunderground v.1.15,2013-09-17 14:25:00,
2013-09-17 10:26:00,62.0,57.1,30.30,NE,34,1.0,1.0,84,0.00,,,0.00,Wunderground v.1.15,2013-09-17 14:26:00,
2013-09-17 10:27:00,62.0,57.8,30.30,NE,34,1.0,1.0,86,0.00,,,0.00,Wunderground v.1.15,2013-09-17 14:27:00,
2013-09-17 10:29:00,62.1,57.9,30.30,NE,36,0.0,1.0,86,0.00,,,0.00,Wunderground v.1.15,2013-09-17 14:29:00,
2013-09-17 10:31:00,62.2,57.6,30.30,ENE,65,0.0,1.0,85,0.00,,,0.00,Wunderground v.1.15,2013-09-17 14:31:00,
2013-09-17 10:36:00,62.4,57.5,30.30,ENE,69,0.0,0.0,84,0.00,,,0.00,Wunderground v.1.15,2013-09-17 14:36:00,
2013-09-17 10:37:00,62.5,57.6,30.30,SSE,149,0.0,1.0,84,0.00,,,0.00,Wunderground v.1.15,2013-09-17 14:37:00,
2013-09-17 10:40:00,62.7,57.8,30.30,SSE,150,1.0,2.0,84,0.00,,,0.00,Wunderground v.1.15,2013-09-17 14:40:00,
2013-09-17 10:44:00,63.0,57.8,30.30,NW,317,0.0,2.0,83,0.00,,,0.00,Wunderground v.1.15,2013-09-17 14:44:00,
2013-09-17 10:45:00,63.2,58.3,30.30,NE,35,0.0,0.0,84,0.00,,,0.00,Wunderground v.1.15,2013-09-17 14:45:00,
2013-09-17 10:46:00,63.3,58.0,30.30,NE,35,0.0,0.0,83,0.00,,,0.00,Wunderground v.1.15,2013-09-17 14:46:00,
2013-09-17 10:49:00,63.6,58.3,30.30,NE,49,0.0,3.0,83,0.00,,,0.00,Wunderground v.1.15,2013-09-17 14:49:00,
2013-09-17 10:51:00,63.7,58.1,30.30,NE,49,0.0,3.0,82,0.00,,,0.00,Wunderground v.1.15,2013-09-17 14:51:00,
2013-09-17 10:53:00,63.9,58.3,30.30,NE,50,0.0,3.0,82,0.00,,,0.00,Wunderground v.1.15,2013-09-17 14:53:00,
2013-09-17 10:56:00,64.1,58.8,30.30,NE,50,0.0,0.0,83,0.00,,,0.00,Wunderground v.1.15,2013-09-17 14:56:00,
2013-09-17 10:59:00,64.3,58.7,30.29,NE,50,0.0,1.0,82,0.00,,,0.00,Wunderground v.1.15,2013-09-17 14:59:00,
2013-09-17 11:01:00,64.4,58.1,30.29,NE,53,0.0,2.0,80,0.00,,,0.00,Wunderground v.1.15,2013-09-17 15:01:00,
2013-09-17 11:03:00,64.4,58.1,30.29,NE,53,0.0,2.0,80,0.00,,,0.00,Wunderground v.1.15,2013-09-17 15:03:00,
2013-09-17 11:05:00,64.5,58.2,30.29,ENE,71,0.0,2.0,80,0.00,,,0.00,Wunderground v.1.15,2013-09-17 15:05:00,
2013-09-17 11:07:00,64.7,58.0,30.29,NNE,26,0.0,1.0,79,0.00,,,0.00,Wunderground v.1.15,2013-09-17 15:07:00,
2013-09-17 11:09:00,64.7,58.0,30.29,ENE,68,0.0,1.0,79,0.00,,,0.00,Wunderground v.1.15,2013-09-17 15:09:00,
2013-09-17 11:11:00,64.9,58.2,30.29,ENE,74,0.0,1.0,79,0.00,,,0.00,Wunderground v.1.15,2013-09-17 15:11:00,
2013-09-17 11:13:00,65.2,58.2,30.29,ENE,74,0.0,1.0,78,0.00,,,0.00,Wunderground v.1.15,2013-09-17 15:13:00,
2013-09-17 11:14:00,65.3,58.3,30.29,ENE,74,0.0,1.0,78,0.00,,,0.00,Wunderground v.1.15,2013-09-17 15:14:00,
2013-09-17 11:17:00,65.5,58.1,30.29,ENE,74,0.0,0.0,77,0.00,,,0.00,Wunderground v.1.15,2013-09-17 15:17:00,
2013-09-17 11:19:00,65.6,58.2,30.29,ESE,105,0.0,2.0,77,0.00,,,0.00,Wunderground v.1.15,2013-09-17 15:19:00,
2013-09-17 11:23:00,65.9,58.8,30.29,ENE,71,0.0,2.0,78,0.00,,,0.00,Wunderground v.1.15,2013-09-17 15:23:00,
2013-09-17 11:27:00,66.1,58.7,30.29,NNW,327,0.0,2.0,77,0.00,,,0.00,Wunderground v.1.15,2013-09-17 15:27:00,
2013-09-17 11:28:00,66.1,58.7,30.29,NNE,32,0.0,2.0,77,0.00,,,0.00,Wunderground v.1.15,2013-09-17 15:28:00,
2013-09-17 11:33:00,66.3,58.5,30.29,East,98,1.0,2.0,76,0.00,,,0.00,Wunderground v.1.15,2013-09-17 15:33:00,
2013-09-17 11:36:00,66.5,58.7,30.29,North,349,1.0,1.0,76,0.00,,,0.00,Wunderground v.1.15,2013-09-17 15:36:00,
2013-09-17 11:38:00,66.7,59.3,30.29,NE,51,1.0,1.0,77,0.00,,,0.00,Wunderground v.1.15,2013-09-17 15:38:00,
2013-09-17 11:40:00,66.9,58.7,30.29,ENE,63,1.0,1.0,75,0.00,,,0.00,Wunderground v.1.15,2013-09-17 15:40:00,
2013-09-17 11:43:00,67.3,59.1,30.29,ENE,62,1.0,1.0,75,0.00,,,0.00,Wunderground v.1.15,2013-09-17 15:43:00,
2013-09-17 11:46:00,67.5,58.9,30.29,NNE,15,0.0,0.0,74,0.00,,,0.00,Wunderground v.1.15,2013-09-17 15:46:00,
2013-09-17 11:47:00,67.6,58.6,30.29,SSE,149,0.0,0.0,73,0.00,,,0.00,Wunderground v.1.15,2013-09-17 15:47:00,
2013-09-17 11:51:00,68.1,59.1,30.29,SW,229,1.0,2.0,73,0.00,,,0.00,Wunderground v.1.15,2013-09-17 15:51:00,
2013-09-17 11:53:00,68.3,58.5,30.29,ENE,71,1.0,2.0,71,0.00,,,0.00,Wunderground v.1.15,2013-09-17 15:53:00,
2013-09-17 11:55:00,68.5,58.7,30.28,ENE,72,1.0,1.0,71,0.00,,,0.00,Wunderground v.1.15,2013-09-17 15:55:00,
2013-09-17 11:56:00,68.6,59.2,30.28,ENE,72,1.0,1.0,72,0.00,,,0.00,Wunderground v.1.15,2013-09-17 15:56:00,
2013-09-17 11:58:00,68.9,59.5,30.28,NNW,336,1.0,2.0,72,0.00,,,0.00,Wunderground v.1.15,2013-09-17 15:58:00,
2013-09-17 11:59:00,69.1,59.7,30.28,North,350,1.0,2.0,72,0.00,,,0.00,Wunderground v.1.15,2013-09-17 15:59:00,
2013-09-17 12:02:00,69.5,59.7,30.28,NE,50,1.0,2.0,71,0.00,,,0.00,Wunderground v.1.15,2013-09-17 16:02:00,
2013-09-17 12:05:00,69.6,59.4,30.28,NNE,29,0.0,0.0,70,0.00,,,0.00,Wunderground v.1.15,2013-09-17 16:05:00,
2013-09-17 12:07:00,69.6,59.8,30.28,NNE,29,0.0,0.0,71,0.00,,,0.00,Wunderground v.1.15,2013-09-17 16:07:00,
2013-09-17 12:10:00,69.7,58.7,30.28,NE,34,0.0,0.0,68,0.00,,,0.00,Wunderground v.1.15,2013-09-17 16:10:00,
2013-09-17 12:11:00,69.7,59.5,30.28,NE,34,0.0,0.0,70,0.00,,,0.00,Wunderground v.1.15,2013-09-17 16:11:00,
2013-09-17 12:12:00,69.8,59.2,30.28,NE,34,0.0,0.0,69,0.00,,,0.00,Wunderground v.1.15,2013-09-17 16:12:00,
2013-09-17 12:13:00,69.8,58.8,30.28,NE,34,0.0,0.0,68,0.00,,,0.00,Wunderground v.1.15,2013-09-17 16:13:00,
2013-09-17 12:17:00,70.0,59.8,30.28,NE,49,0.0,1.0,70,0.00,,,0.00,Wunderground v.1.15,2013-09-17 16:17:00,
2013-09-17 12:20:00,70.4,58.9,30.28,NE,48,0.0,1.0,67,0.00,,,0.00,Wunderground v.1.15,2013-09-17 16:20:00,
2013-09-17 12:22:00,70.6,59.1,30.28,NE,48,0.0,1.0,67,0.00,,,0.00,Wunderground v.1.15,2013-09-17 16:22:00,
2013-09-17 12:25:00,70.9,59.0,30.28,East,98,1.0,1.0,66,0.00,,,0.00,Wunderground v.1.15,2013-09-17 16:25:00,
2013-09-17 12:26:00,71.1,59.2,30.27,East,84,1.0,1.0,66,0.00,,,0.00,Wunderground v.1.15,2013-09-17 16:26:00,
2013-09-17 12:28:00,71.3,58.5,30.27,East,84,1.0,1.0,64,0.00,,,0.00,Wunderground v.1.15,2013-09-17 16:28:00,
2013-09-17 12:30:00,71.4,59.0,30.27,ENE,69,1.0,2.0,65,0.00,,,0.00,Wunderground v.1.15,2013-09-17 16:30:00,
2013-09-17 12:32:00,71.4,58.1,30.27,ENE,69,1.0,2.0,63,0.00,,,0.00,Wunderground v.1.15,2013-09-17 16:32:00,
2013-09-17 12:34:00,71.3,58.5,30.27,ENE,64,1.0,2.0,64,0.00,,,0.00,Wunderground v.1.15,2013-09-17 16:34:00,
2013-09-17 12:36:00,71.3,58.1,30.27,NNE,22,1.0,1.0,63,0.00,,,0.00,Wunderground v.1.15,2013-09-17 16:36:00,
2013-09-17 12:38:00,71.3,58.5,30.27,SSE,158,1.0,1.0,64,0.00,,,0.00,Wunderground v.1.15,2013-09-17 16:38:00,
2013-09-17 12:40:00,71.3,58.5,30.27,SSE,158,1.0,1.0,64,0.00,,,0.00,Wunderground v.1.15,2013-09-17 16:40:00,
2013-09-17 12:42:00,71.4,59.4,30.27,SSE,158,0.0,1.0,66,0.00,,,0.00,Wunderground v.1.15,2013-09-17 16:42:00,
2013-09-17 12:44:00,71.5,59.1,30.27,SSE,150,0.0,1.0,65,0.00,,,0.00,Wunderground v.1.15,2013-09-17 16:44:00,
2013-09-17 12:46:00,71.6,59.2,30.27,South,171,1.0,4.0,65,0.00,,,0.00,Wunderground v.1.15,2013-09-17 16:46:00,
2013-09-17 12:48:00,71.7,59.3,30.27,South,171,0.0,4.0,65,0.00,,,0.00,Wunderground v.1.15,2013-09-17 16:48:00,
2013-09-17 12:51:00,71.9,59.1,30.26,South,177,1.0,4.0,64,0.00,,,0.00,Wunderground v.1.15,2013-09-17 16:51:00,
2013-09-17 12:52:00,72.1,59.7,30.26,South,177,0.0,4.0,65,0.00,,,0.00,Wunderground v.1.15,2013-09-17 16:52:00,
2013-09-17 12:53:00,72.1,59.2,30.26,NE,38,0.0,4.0,64,0.00,,,0.00,Wunderground v.1.15,2013-09-17 16:53:00,
2013-09-17 12:55:00,72.2,58.0,30.26,ENE,71,1.0,1.0,61,0.00,,,0.00,Wunderground v.1.15,2013-09-17 16:55:00,
2013-09-17 12:58:00,72.1,58.8,30.26,ENE,74,1.0,1.0,63,0.00,,,0.00,Wunderground v.1.15,2013-09-17 16:58:00,
2013-09-17 13:00:00,72.1,59.2,30.26,ENE,74,1.0,2.0,64,0.00,,,0.00,Wunderground v.1.15,2013-09-17 17:00:00,
2013-09-17 13:03:00,72.0,59.2,30.26,ENE,63,1.0,2.0,64,0.00,,,0.00,Wunderground v.1.15,2013-09-17 17:03:00,
2013-09-17 13:04:00,72.0,59.6,30.26,ENE,63,1.0,2.0,65,0.00,,,0.00,Wunderground v.1.15,2013-09-17 17:04:00,
2013-09-17 13:05:00,71.9,59.1,30.26,ENE,63,1.0,1.0,64,0.00,,,0.00,Wunderground v.1.15,2013-09-17 17:05:00,
2013-09-17 13:06:00,61.1,58.1,30.17,NW,326,0.0,0.0,90,0.00,,,0.00,Wunderground v.1.15,2013-09-17 17:06:00,
2013-09-17 13:07:00,71.9,59.5,30.26,ENE,63,1.0,1.0,65,0.00,,,0.00,Wunderground v.1.15,2013-09-17 17:07:00,
2013-09-17 13:08:00,61.1,58.1,30.17,NW,326,0.0,0.0,90,0.00,,,0.00,Wunderground v.1.15,2013-09-17 17:08:00,
2013-09-17 13:09:00,61.1,58.1,30.17,NW,326,0.0,0.0,90,0.00,,,0.00,Wunderground v.1.15,2013-09-17 17:09:00,
2013-09-17 13:10:00,61.1,58.1,30.17,NW,326,0.0,0.0,90,0.00,,,0.00,Wunderground v.1.15,2013-09-17 17:10:00,
2013-09-17 13:11:00,61.0,58.0,30.17,NW,326,0.0,0.0,90,0.00,,,0.00,Wunderground v.1.15,2013-09-17 17:11:00,
2013-09-17 13:12:00,72.0,59.6,30.26,ENE,63,0.0,1.0,65,0.00,,,0.00,Wunderground v.1.15,2013-09-17 17:12:00,
2013-09-17 13:13:00,61.0,58.0,30.17,NW,326,0.0,0.0,90,0.00,,,0.00,Wunderground v.1.15,2013-09-17 17:13:00,
2013-09-17 13:14:00,71.9,59.5,30.26,ENE,63,0.0,1.0,65,0.00,,,0.00,Wunderground v.1.15,2013-09-17 17:14:00,
2013-09-17 13:15:00,60.9,57.9,30.17,NW,326,0.0,0.0,90,0.00,,,0.00,Wunderground v.1.15,2013-09-17 17:15:00,
2013-09-17 13:16:00,60.9,57.9,30.17,NW,326,0.0,0.0,90,0.00,,,0.00,Wunderground v.1.15,2013-09-17 17:16:00,
2013-09-17 13:17:00,71.8,58.5,30.26,ENE,63,0.0,1.0,63,0.00,,,0.00,Wunderground v.1.15,2013-09-17 17:17:00,
2013-09-17 13:18:00,60.9,57.9,30.16,NW,326,0.0,0.0,90,0.00,,,0.00,Wunderground v.1.15,2013-09-17 17:18:00,
2013-09-17 13:19:00,71.7,58.9,30.26,ENE,63,0.0,1.0,64,0.00,,,0.00,Wunderground v.1.15,2013-09-17 17:19:00,
2013-09-17 13:20:00,60.9,57.9,30.16,NW,326,0.0,0.0,90,0.00,,,0.00,Wunderground v.1.15,2013-09-17 17:20:00,
2013-09-17 13:21:00,60.9,57.9,30.16,NW,326,0.0,0.0,90,0.00,,,0.00,Wunderground v.1.15,2013-09-17 17:21:00,
2013-09-17 13:22:00,60.9,58.3,30.16,NW,326,0.0,0.0,91,0.00,,,0.00,Wunderground v.1.15,2013-09-17 17:22:00,
2013-09-17 13:23:00,71.7,59.3,30.26,ENE,63,0.0,1.0,65,0.00,,,0.00,Wunderground v.1.15,2013-09-17 17:23:00,
2013-09-17 13:24:00,60.9,58.3,30.16,NW,326,0.0,0.0,91,0.00,,,0.00,Wunderground v.1.15,2013-09-17 17:24:00,
2013-09-17 13:25:00,71.8,59.4,30.26,ENE,63,0.0,1.0,65,0.00,,,0.00,Wunderground v.1.15,2013-09-17 17:25:00,
2013-09-17 13:26:00,60.9,58.3,30.16,NW,326,0.0,0.0,91,0.00,,,0.00,Wunderground v.1.15,2013-09-17 17:26:00,
2013-09-17 13:27:00,60.8,58.2,30.16,NW,326,0.0,0.0,91,0.00,,,0.00,Wunderground v.1.15,2013-09-17 17:27:00,
2013-09-17 13:28:00,60.8,58.2,30.16,NW,326,0.0,0.0,91,0.00,,,0.00,Wunderground v.1.15,2013-09-17 17:28:00,
2013-09-17 13:29:00,60.9,58.3,30.16,NW,326,0.0,0.0,91,0.00,,,0.00,Wunderground v.1.15,2013-09-17 17:29:00,
2013-09-17 13:30:00,71.9,60.3,30.25,East,86,0.0,0.0,67,0.00,,,0.00,Wunderground v.1.15,2013-09-17 17:30:00,
2013-09-17 13:31:00,60.8,58.2,30.16,NW,326,0.0,0.0,91,0.00,,,0.00,Wunderground v.1.15,2013-09-17 17:31:00,
2013-09-17 13:32:00,71.9,59.9,30.25,WSW,258,0.0,0.0,66,0.00,,,0.00,Wunderground v.1.15,2013-09-17 17:32:00,
2013-09-17 13:33:00,60.8,58.2,30.16,NW,326,0.0,0.0,91,0.00,,,0.00,Wunderground v.1.15,2013-09-17 17:33:00,
2013-09-17 13:34:00,60.8,58.2,30.16,NW,326,0.0,0.0,91,0.00,,,0.00,Wunderground v.1.15,2013-09-17 17:34:00,
2013-09-17 13:35:00,60.8,58.2,30.16,NW,326,0.0,0.0,91,0.00,,,0.00,Wunderground v.1.15,2013-09-17 17:35:00,
2013-09-17 13:36:00,60.8,58.2,30.16,NW,326,0.0,0.0,91,0.00,,,0.00,Wunderground v.1.15,2013-09-17 17:36:00,
2013-09-17 13:37:00,71.9,60.3,30.25,West,261,0.0,0.0,67,0.00,,,0.00,Wunderground v.1.15,2013-09-17 17:37:00,
2013-09-17 13:38:00,60.7,58.1,30.16,NW,326,0.0,0.0,91,0.00,,,0.00,Wunderground v.1.15,2013-09-17 17:38:00,
2013-09-17 13:39:00,72.0,59.2,30.25,West,261,0.0,0.0,64,0.00,,,0.00,Wunderground v.1.15,2013-09-17 17:39:00,
2013-09-17 13:40:00,60.7,58.1,30.16,NW,326,0.0,0.0,91,0.00,,,0.00,Wunderground v.1.15,2013-09-17 17:40:00,
2013-09-17 13:41:00,60.7,58.1,30.16,NW,326,0.0,0.0,91,0.00,,,0.00,Wunderground v.1.15,2013-09-17 17:41:00,
2013-09-17 13:42:00,72.2,60.2,30.25,South,182,0.0,1.0,66,0.00,,,0.00,Wunderground v.1.15,2013-09-17 17:42:00,
2013-09-17 13:43:00,60.7,58.1,30.16,NW,326,0.0,0.0,91,0.00,,,0.00,Wunderground v.1.15,2013-09-17 17:43:00,
2013-09-17 13:44:00,72.3,59.9,30.25,ENE,70,0.0,2.0,65,0.00,,,0.00,Wunderground v.1.15,2013-09-17 17:44:00,
2013-09-17 13:45:00,60.7,58.1,30.16,NW,326,0.0,0.0,91,0.00,,,0.00,Wunderground v.1.15,2013-09-17 17:45:00,
2013-09-17 13:46:00,60.7,58.1,30.16,NW,326,0.0,0.0,91,0.00,,,0.00,Wunderground v.1.15,2013-09-17 17:46:00,
2013-09-17 13:47:00,60.7,58.1,30.16,NW,326,0.0,0.0,91,0.00,,,0.00,Wunderground v.1.15,2013-09-17 17:47:00,
2013-09-17 13:48:00,60.7,58.1,30.16,NW,326,0.0,0.0,91,0.00,,,0.00,Wunderground v.1.15,2013-09-17 17:48:00,
2013-09-17 13:49:00,72.6,59.7,30.25,ENE,70,0.0,0.0,64,0.00,,,0.00,Wunderground v.1.15,2013-09-17 17:49:00,
2013-09-17 13:50:00,60.6,58.0,30.16,NW,326,0.0,0.0,91,0.00,,,0.00,Wunderground v.1.15,2013-09-17 17:50:00,
2013-09-17 13:51:00,72.7,59.4,30.25,East,80,0.0,0.0,63,0.00,,,0.00,Wunderground v.1.15,2013-09-17 17:51:00,
2013-09-17 13:52:00,72.8,60.3,30.25,East,80,0.0,0.0,65,0.00,,,0.00,Wunderground v.1.15,2013-09-17 17:52:00,
2013-09-17 13:53:00,60.5,57.9,30.16,NW,326,0.0,0.0,91,0.00,,,0.00,Wunderground v.1.15,2013-09-17 17:53:00,
2013-09-17 13:54:00,72.9,60.4,30.25,SSE,147,0.0,0.0,65,0.00,,,0.00,Wunderground v.1.15,2013-09-17 17:54:00,
2013-09-17 13:55:00,60.5,57.9,30.16,NW,326,0.0,0.0,91,0.00,,,0.00,Wunderground v.1.15,2013-09-17 17:55:00,
2013-09-17 13:56:00,73.1,61.1,30.25,SSE,147,0.0,0.0,66,0.00,,,0.00,Wunderground v.1.15,2013-09-17 17:56:00,
2013-09-17 13:57:00,60.4,57.8,30.16,NW,326,0.0,0.0,91,0.00,,,0.00,Wunderground v.1.15,2013-09-17 17:57:00,
2013-09-17 13:58:00,60.4,57.8,30.16,NW,326,0.0,0.0,91,0.00,,,0.00,Wunderground v.1.15,2013-09-17 17:58:00,
2013-09-17 13:59:00,73.6,59.8,30.24,ESE,115,0.0,1.0,62,0.00,,,0.00,Wunderground v.1.15,2013-09-17 17:59:00,
2013-09-17 14:00:00,73.8,60.4,30.24,ESE,115,0.0,1.0,63,0.00,,,0.00,Wunderground v.1.15,2013-09-17 18:00:00,
2013-09-17 14:01:00,60.4,58.1,30.15,NW,326,0.0,0.0,92,0.00,,,0.00,Wunderground v.1.15,2013-09-17 18:01:00,
2013-09-17 14:02:00,74.2,59.9,30.24,ENE,67,0.0,1.0,61,0.00,,,0.00,Wunderground v.1.15,2013-09-17 18:02:00,
2013-09-17 14:03:00,60.4,58.1,30.15,NW,326,0.0,0.0,92,0.00,,,0.00,Wunderground v.1.15,2013-09-17 18:03:00,
2013-09-17 14:04:00,60.4,58.1,30.15,NW,326,0.0,0.0,92,0.00,,,0.00,Wunderground v.1.15,2013-09-17 18:04:00,
2013-09-17 14:05:00,74.5,60.2,30.24,ENE,67,0.0,1.0,61,0.00,,,0.00,Wunderground v.1.15,2013-09-17 18:05:00,
2013-09-17 14:06:00,60.4,58.1,30.16,NW,326,0.0,0.0,92,0.00,,,0.00,Wunderground v.1.15,2013-09-17 18:06:00,
2013-09-17 14:07:00,75.0,60.6,30.24,NW,319,0.0,1.0,61,0.00,,,0.00,Wunderground v.1.15,2013-09-17 18:07:00,
2013-09-17 14:08:00,60.4,58.1,30.16,NW,326,0.0,0.0,92,0.00,,,0.00,Wunderground v.1.15,2013-09-17 18:08:00,
2013-09-17 14:09:00,60.4,58.1,30.16,NW,326,0.0,0.0,92,0.00,,,0.00,Wunderground v.1.15,2013-09-17 18:09:00,
2013-09-17 14:10:00,60.4,58.1,30.16,NW,326,0.0,0.0,92,0.00,,,0.00,Wunderground v.1.15,2013-09-17 18:10:00,
2013-09-17 14:11:00,60.4,58.1,30.16,NW,326,0.0,0.0,92,0.00,,,0.00,Wunderground v.1.15,2013-09-17 18:11:00,
2013-09-17 14:12:00,75.6,60.3,30.23,South,184,1.0,3.0,59,0.00,,,0.00,Wunderground v.1.15,2013-09-17 18:12:00,
2013-09-17 14:13:00,75.6,59.3,30.23,ESE,107,1.0,3.0,57,0.00,,,0.00,Wunderground v.1.15,2013-09-17 18:13:00,
2013-09-17 14:14:00,60.4,58.1,30.15,NW,326,0.0,0.0,92,0.00,,,0.00,Wunderground v.1.15,2013-09-17 18:14:00,
2013-09-17 14:15:00,60.4,58.1,30.16,NW,326,0.0,0.0,92,0.00,,,0.00,Wunderground v.1.15,2013-09-17 18:15:00,
2013-09-17 14:16:00,60.4,58.1,30.15,NW,326,0.0,0.0,92,0.00,,,0.00,Wunderground v.1.15,2013-09-17 18:16:00,
2013-09-17 14:17:00,60.4,58.1,30.15,NW,326,0.0,0.0,92,0.00,,,0.00,Wunderground v.1.15,2013-09-17 18:17:00,
2013-09-17 14:18:00,75.5,58.7,30.23,NE,38,1.0,1.0,56,0.00,,,0.00,Wunderground v.1.15,2013-09-17 18:18:00,
2013-09-17 14:19:00,75.5,58.7,30.23,SE,131,1.0,1.0,56,0.00,,,0.00,Wunderground v.1.15,2013-09-17 18:19:00,
2013-09-17 14:20:00,75.5,58.7,30.23,SE,132,1.0,1.0,56,0.00,,,0.00,Wunderground v.1.15,2013-09-17 18:20:00,
2013-09-17 14:21:00,75.3,59.5,30.23,SE,132,1.0,1.0,58,0.00,,,0.00,Wunderground v.1.15,2013-09-17 18:21:00,
2013-09-17 14:22:00,60.3,58.0,30.15,NW,326,0.0,0.0,92,0.00,,,0.00,Wunderground v.1.15,2013-09-17 18:22:00,
2013-09-17 14:23:00,75.0,60.6,30.23,SE,132,1.0,1.0,61,0.00,,,0.00,Wunderground v.1.15,2013-09-17 18:23:00,
2013-09-17 14:24:00,60.3,58.0,30.15,NW,326,0.0,0.0,92,0.00,,,0.00,Wunderground v.1.15,2013-09-17 18:24:00,
2013-09-17 14:25:00,74.8,58.5,30.23,SE,134,0.0,0.0,57,0.00,,,0.00,Wunderground v.1.15,2013-09-17 18:25:00,
2013-09-17 14:26:00,60.3,58.0,30.15,NW,326,0.0,0.0,92,0.00,,,0.00,Wunderground v.1.15,2013-09-17 18:26:00,
2013-09-17 14:27:00,74.7,58.5,30.23,SE,134,0.0,0.0,57,0.00,,,0.00,Wunderground v.1.15,2013-09-17 18:27:00,
2013-09-17 14:28:00,60.3,58.0,30.15,NW,326,0.0,0.0,92,0.00,,,0.00,Wunderground v.1.15,2013-09-17 18:28:00,
2013-09-17 14:29:00,60.3,58.0,30.15,NW,326,0.0,0.0,92,0.00,,,0.00,Wunderground v.1.15,2013-09-17 18:29:00,
2013-09-17 14:30:00,60.3,58.0,30.15,NW,326,0.0,0.0,92,0.00,,,0.00,Wunderground v.1.15,2013-09-17 18:30:00,
2013-09-17 14:31:00,74.5,58.3,30.23,ESE,105,0.0,0.0,57,0.00,,,0.00,Wunderground v.1.15,2013-09-17 18:31:00,
2013-09-17 14:32:00,60.3,58.0,30.15,NW,326,0.0,0.0,92,0.00,,,0.00,Wunderground v.1.15,2013-09-17 18:32:00,
2013-09-17 14:33:00,74.4,59.1,30.23,ESE,105,0.0,1.0,59,0.00,,,0.00,Wunderground v.1.15,2013-09-17 18:33:00,
2013-09-17 14:34:00,60.2,57.9,30.15,NW,326,0.0,0.0,92,0.00,,,0.00,Wunderground v.1.15,2013-09-17 18:34:00,
2013-09-17 14:36:00,74.5,59.7,30.23,ESE,105,0.0,0.0,60,0.00,,,0.00,Wunderground v.1.15,2013-09-17 18:36:00,
2013-09-17 14:37:00,60.3,58.0,30.15,NW,326,0.0,0.0,92,0.00,,,0.00,Wunderground v.1.15,2013-09-17 18:37:00,
2013-09-17 14:38:00,74.6,59.8,30.23,ESE,105,0.0,1.0,60,0.00,,,0.00,Wunderground v.1.15,2013-09-17 18:38:00,
2013-09-17 14:39:00,60.3,58.0,30.15,NW,326,0.0,0.0,92,0.00,,,0.00,Wunderground v.1.15,2013-09-17 18:39:00,
2013-09-17 14:42:00,74.8,58.5,30.23,ESE,105,0.0,3.0,57,0.00,,,0.00,Wunderground v.1.15,2013-09-17 18:42:00,
2013-09-17 14:45:00,74.7,58.9,30.22,NE,49,0.0,3.0,58,0.00,,,0.00,Wunderground v.1.15,2013-09-17 18:45:00,
2013-09-17 14:46:00,74.7,59.4,30.22,NE,49,0.0,0.0,59,0.00,,,0.00,Wunderground v.1.15,2013-09-17 18:46:00,
2013-09-17 14:47:00,74.7,59.9,30.22,NE,49,0.0,0.0,60,0.00,,,0.00,Wunderground v.1.15,2013-09-17 18:47:00,
2013-09-17 14:48:00,74.7,58.9,30.22,NE,49,0.0,0.0,58,0.00,,,0.00,Wunderground v.1.15,2013-09-17 18:48:00,
2013-09-17 14:49:00,60.1,57.8,30.15,NW,326,0.0,0.0,92,0.00,,,0.00,Wunderground v.1.15,2013-09-17 18:49:00,
2013-09-17 14:50:00,74.8,59.0,30.22,NE,49,0.0,0.0,58,0.00,,,0.00,Wunderground v.1.15,2013-09-17 18:50:00,
2013-09-17 14:51:00,74.8,59.5,30.22,NE,50,0.0,0.0,59,0.00,,,0.00,Wunderground v.1.15,2013-09-17 18:51:00,
2013-09-17 14:52:00,60.0,57.7,30.15,NW,326,0.0,0.0,92,0.00,,,0.00,Wunderground v.1.15,2013-09-17 18:52:00,
2013-09-17 14:53:00,74.9,60.5,30.22,NE,50,0.0,0.0,61,0.00,,,0.00,Wunderground v.1.15,2013-09-17 18:53:00,
2013-09-17 14:54:00,74.9,59.6,30.22,NE,50,0.0,0.0,59,0.00,,,0.00,Wunderground v.1.15,2013-09-17 18:54:00,
2013-09-17 14:56:00,60.0,57.7,30.15,NW,326,0.0,0.0,92,0.00,,,0.00,Wunderground v.1.15,2013-09-17 18:56:00,
2013-09-17 14:58:00,75.0,60.6,30.22,NNW,334,0.0,0.0,61,0.00,,,0.00,Wunderground v.1.15,2013-09-17 18:58:00,
2013-09-17 14:59:00,59.8,57.5,30.15,NW,326,0.0,0.0,92,0.00,,,0.00,Wunderground v.1.15,2013-09-17 18:59:00,
2013-09-17 15:00:00,75.0,59.2,30.22,NNW,334,0.0,0.0,58,0.00,,,0.00,Wunderground v.1.15,2013-09-17 19:00:00,
2013-09-17 15:01:00,75.1,59.3,30.22,NNW,334,0.0,0.0,58,0.00,,,0.00,Wunderground v.1.15,2013-09-17 19:01:00,
2013-09-17 15:02:00,59.8,57.5,30.15,NW,326,0.0,0.0,92,0.00,,,0.00,Wunderground v.1.15,2013-09-17 19:02:00,
2013-09-17 15:03:00,59.8,57.5,30.15,NW,326,0.0,0.0,92,0.00,,,0.00,Wunderground v.1.15,2013-09-17 19:03:00,
2013-09-17 15:05:00,75.1,60.3,30.22,NNE,26,0.0,0.0,60,0.00,,,0.00,Wunderground v.1.15,2013-09-17 19:05:00,
2013-09-17 15:06:00,59.7,57.4,30.15,NW,326,0.0,0.0,92,0.00,,,0.00,Wunderground v.1.15,2013-09-17 19:06:00,
2013-09-17 15:07:00,75.1,59.3,30.22,NNE,26,0.0,0.0,58,0.00,,,0.00,Wunderground v.1.15,2013-09-17 19:07:00,
2013-09-17 15:09:00,75.0,58.7,30.22,NE,40,0.0,1.0,57,0.00,,,0.00,Wunderground v.1.15,2013-09-17 19:09:00,
2013-09-17 15:10:00,74.9,58.1,30.22,ENE,61,0.0,1.0,56,0.00,,,0.00,Wunderground v.1.15,2013-09-17 19:10:00,
2013-09-17 15:15:00,75.2,59.4,30.22,ENE,61,0.0,1.0,58,0.00,,,0.00,Wunderground v.1.15,2013-09-17 19:15:00,
2013-09-17 15:17:00,75.3,57.5,30.22,ENE,61,0.0,0.0,54,0.00,,,0.00,Wunderground v.1.15,2013-09-17 19:17:00,
2013-09-17 15:18:00,75.5,60.2,30.21,ENE,61,0.0,0.0,59,0.00,,,0.00,Wunderground v.1.15,2013-09-17 19:18:00,
2013-09-17 15:20:00,75.7,58.9,30.21,ENE,61,0.0,0.0,56,0.00,,,0.00,Wunderground v.1.15,2013-09-17 19:20:00,
2013-09-17 15:22:00,59.4,57.1,30.15,NW,326,0.0,0.0,92,0.00,,,0.00,Wunderground v.1.15,2013-09-17 19:22:00,
2013-09-17 15:24:00,75.8,58.5,30.21,ENE,59,0.0,0.0,55,0.00,,,0.00,Wunderground v.1.15,2013-09-17 19:24:00,
2013-09-17 15:25:00,75.9,58.6,30.21,ENE,59,0.0,0.0,55,0.00,,,0.00,Wunderground v.1.15,2013-09-17 19:25:00,
2013-09-17 15:26:00,75.9,58.6,30.21,ENE,59,0.0,0.0,55,0.00,,,0.00,Wunderground v.1.15,2013-09-17 19:26:00,
2013-09-17 15:29:00,76.0,58.7,30.21,ENE,59,0.0,1.0,55,0.00,,,0.00,Wunderground v.1.15,2013-09-17 19:29:00,
2013-09-17 15:31:00,59.3,57.0,30.15,NW,326,0.0,0.0,92,0.00,,,0.00,Wunderground v.1.15,2013-09-17 19:31:00,
2013-09-17 15:32:00,76.2,58.9,30.21,East,96,0.0,1.0,55,0.00,,,0.00,Wunderground v.1.15,2013-09-17 19:32:00,
2013-09-17 15:34:00,59.3,57.3,30.15,NW,326,0.0,0.0,93,0.00,,,0.00,Wunderground v.1.15,2013-09-17 19:34:00,
2013-09-17 15:35:00,76.2,58.3,30.21,East,96,0.0,1.0,54,0.00,,,0.00,Wunderground v.1.15,2013-09-17 19:35:00,
2013-09-17 15:36:00,76.2,59.9,30.21,East,96,0.0,0.0,57,0.00,,,0.00,Wunderground v.1.15,2013-09-17 19:36:00,
2013-09-17 15:37:00,59.3,57.3,30.15,NW,326,0.0,0.0,93,0.00,,,0.00,Wunderground v.1.15,2013-09-17 19:37:00,
2013-09-17 15:38:00,59.3,57.3,30.15,NW,326,0.0,0.0,93,0.00,,,0.00,Wunderground v.1.15,2013-09-17 19:38:00,
2013-09-17 15:39:00,59.3,57.3,30.15,NW,326,0.0,0.0,93,0.00,,,0.00,Wunderground v.1.15,2013-09-17 19:39:00,
2013-09-17 15:40:00,59.3,57.3,30.15,NW,326,0.0,0.0,93,0.00,,,0.00,Wunderground v.1.15,2013-09-17 19:40:00,
2013-09-17 15:41:00,76.1,59.3,30.21,East,80,0.0,0.0,56,0.00,,,0.00,Wunderground v.1.15,2013-09-17 19:41:00,
2013-09-17 15:42:00,59.3,57.3,30.15,NW,326,0.0,0.0,93,0.00,,,0.00,Wunderground v.1.15,2013-09-17 19:42:00,
2013-09-17 15:43:00,76.1,59.8,30.21,East,80,0.0,0.0,57,0.00,,,0.00,Wunderground v.1.15,2013-09-17 19:43:00,
2013-09-17 15:45:00,59.4,57.4,30.15,NW,326,0.0,0.0,93,0.00,,,0.00,Wunderground v.1.15,2013-09-17 19:45:00,
2013-09-17 15:46:00,76.3,58.4,30.21,SE,142,0.0,0.0,54,0.00,,,0.00,Wunderground v.1.15,2013-09-17 19:46:00,
2013-09-17 15:49:00,76.5,60.6,30.20,ESE,115,0.0,0.0,58,0.00,,,0.00,Wunderground v.1.15,2013-09-17 19:49:00,
2013-09-17 15:51:00,59.4,57.4,30.15,NW,326,0.0,0.0,93,0.00,,,0.00,Wunderground v.1.15,2013-09-17 19:51:00,
2013-09-17 15:53:00,76.6,59.7,30.20,ESE,115,0.0,0.0,56,0.00,,,0.00,Wunderground v.1.15,2013-09-17 19:53:00,
2013-09-17 15:55:00,76.6,59.2,30.20,ESE,115,0.0,0.0,55,0.00,,,0.00,Wunderground v.1.15,2013-09-17 19:55:00,
2013-09-17 15:56:00,76.6,58.7,30.20,ESE,115,0.0,0.0,54,0.00,,,0.00,Wunderground v.1.15,2013-09-17 19:56:00,
2013-09-17 15:58:00,76.6,59.7,30.20,ESE,115,0.0,0.0,56,0.00,,,0.00,Wunderground v.1.15,2013-09-17 19:58:00,
2013-09-17 16:01:00,76.5,58.6,30.20,ESE,115,0.0,0.0,54,0.00,,,0.00,Wunderground v.1.15,2013-09-17 20:01:00,
2013-09-17 16:03:00,76.4,60.5,30.20,ESE,115,0.0,0.0,58,0.00,,,0.00,Wunderground v.1.15,2013-09-17 20:03:00,
2013-09-17 16:06:00,76.4,60.0,30.20,ESE,115,0.0,0.0,57,0.00,,,0.00,Wunderground v.1.15,2013-09-17 20:06:00,
2013-09-17 16:07:00,59.5,57.5,30.14,NW,326,0.0,0.0,93,0.00,,,0.00,Wunderground v.1.15,2013-09-17 20:07:00,
2013-09-17 16:09:00,76.0,60.2,30.20,ESE,115,0.0,0.0,58,0.00,,,0.00,Wunderground v.1.15,2013-09-17 20:09:00,
2013-09-17 16:11:00,75.8,58.0,30.19,ESE,115,0.0,0.0,54,0.00,,,0.00,Wunderground v.1.15,2013-09-17 20:11:00,
2013-09-17 16:12:00,75.8,58.5,30.19,ESE,115,0.0,0.0,55,0.00,,,0.00,Wunderground v.1.15,2013-09-17 20:12:00,
2013-09-17 16:17:00,75.8,60.0,30.19,ESE,115,0.0,0.0,58,0.00,,,0.00,Wunderground v.1.15,2013-09-17 20:17:00,
2013-09-17 16:18:00,76.0,60.6,30.19,ESE,115,0.0,0.0,59,0.00,,,0.00,Wunderground v.1.15,2013-09-17 20:18:00,
2013-09-17 16:19:00,76.0,60.2,30.19,ESE,115,0.0,0.0,58,0.00,,,0.00,Wunderground v.1.15,2013-09-17 20:19:00,
2013-09-17 16:23:00,76.2,60.3,30.19,ESE,115,0.0,0.0,58,0.00,,,0.00,Wunderground v.1.15,2013-09-17 20:23:00,
2013-09-17 16:24:00,76.2,58.9,30.19,ESE,115,0.0,0.0,55,0.00,,,0.00,Wunderground v.1.15,2013-09-17 20:24:00,
2013-09-17 16:26:00,76.3,59.4,30.19,ESE,115,0.0,0.0,56,0.00,,,0.00,Wunderground v.1.15,2013-09-17 20:26:00,
2013-09-17 16:27:00,76.4,59.5,30.19,ESE,115,0.0,1.0,56,0.00,,,0.00,Wunderground v.1.15,2013-09-17 20:27:00,
2013-09-17 16:28:00,76.4,58.5,30.19,ESE,115,0.0,1.0,54,0.00,,,0.00,Wunderground v.1.15,2013-09-17 20:28:00,
2013-09-17 16:30:00,76.5,60.1,30.19,ESE,115,0.0,1.0,57,0.00,,,0.00,Wunderground v.1.15,2013-09-17 20:30:00,
2013-09-17 16:33:00,76.8,59.9,30.19,ESE,115,0.0,1.0,56,0.00,,,0.00,Wunderground v.1.15,2013-09-17 20:33:00,
2013-09-17 16:36:00,76.9,58.5,30.19,East,85,0.0,0.0,53,0.00,,,0.00,Wunderground v.1.15,2013-09-17 20:36:00,
2013-09-17 16:37:00,76.9,58.5,30.19,East,85,0.0,0.0,53,0.00,,,0.00,Wunderground v.1.15,2013-09-17 20:37:00,
2013-09-17 16:38:00,76.9,57.9,30.19,East,85,0.0,0.0,52,0.00,,,0.00,Wunderground v.1.15,2013-09-17 20:38:00,
2013-09-17 16:40:00,77.0,58.6,30.19,East,85,0.0,0.0,53,0.00,,,0.00,Wunderground v.1.15,2013-09-17 20:40:00,
2013-09-17 16:43:00,77.1,59.2,30.19,East,85,0.0,0.0,54,0.00,,,0.00,Wunderground v.1.15,2013-09-17 20:43:00,
2013-09-17 16:45:00,77.2,58.7,30.19,SSE,161,0.0,0.0,53,0.00,,,0.00,Wunderground v.1.15,2013-09-17 20:45:00,
2013-09-17 16:47:00,77.2,59.3,30.19,SSE,161,0.0,0.0,54,0.00,,,0.00,Wunderground v.1.15,2013-09-17 20:47:00,
2013-09-17 16:50:00,77.1,59.2,30.19,SSE,161,0.0,0.0,54,0.00,,,0.00,Wunderground v.1.15,2013-09-17 20:50:00,
2013-09-17 16:51:00,77.0,59.1,30.18,SSE,161,0.0,0.0,54,0.00,,,0.00,Wunderground v.1.15,2013-09-17 20:51:00,
2013-09-17 16:53:00,76.7,58.3,30.18,SSE,161,0.0,0.0,53,0.00,,,0.00,Wunderground v.1.15,2013-09-17 20:53:00,
2013-09-17 16:59:00,76.2,59.4,30.18,SSE,161,0.0,0.0,56,0.00,,,0.00,Wunderground v.1.15,2013-09-17 20:59:00,
2013-09-17 17:01:00,75.9,60.5,30.18,SSE,161,0.0,0.0,59,0.00,,,0.00,Wunderground v.1.15,2013-09-17 21:01:00,
2013-09-17 17:04:00,75.5,61.6,30.18,SSE,161,0.0,0.0,62,0.00,,,0.00,Wunderground v.1.15,2013-09-17 21:04:00,
2013-09-17 17:05:00,75.1,61.2,30.18,SSE,161,0.0,0.0,62,0.00,,,0.00,Wunderground v.1.15,2013-09-17 21:05:00,
2013-09-17 17:07:00,74.6,60.3,30.18,SSE,161,0.0,0.0,61,0.00,,,0.00,Wunderground v.1.15,2013-09-17 21:07:00,
2013-09-17 17:08:00,74.4,60.1,30.18,SSE,161,0.0,0.0,61,0.00,,,0.00,Wunderground v.1.15,2013-09-17 21:08:00,
2013-09-17 17:12:00,73.8,60.4,30.18,SSE,161,0.0,0.0,63,0.00,,,0.00,Wunderground v.1.15,2013-09-17 21:12:00,
2013-09-17 17:14:00,73.7,61.2,30.18,SSE,161,0.0,0.0,65,0.00,,,0.00,Wunderground v.1.15,2013-09-17 21:14:00,
2013-09-17 17:16:00,73.4,60.9,30.18,SSE,161,0.0,0.0,65,0.00,,,0.00,Wunderground v.1.15,2013-09-17 21:16:00,
2013-09-17 17:17:00,73.3,60.8,30.18,SSE,161,0.0,0.0,65,0.00,,,0.00,Wunderground v.1.15,2013-09-17 21:17:00,
2013-09-17 17:21:00,73.0,60.5,30.18,SSE,161,0.0,0.0,65,0.00,,,0.00,Wunderground v.1.15,2013-09-17 21:21:00,
2013-09-17 17:22:00,72.9,61.3,30.18,SSE,161,0.0,0.0,67,0.00,,,0.00,Wunderground v.1.15,2013-09-17 21:22:00,
2013-09-17 17:24:00,72.8,60.8,30.18,SSE,161,0.0,0.0,66,0.00,,,0.00,Wunderground v.1.15,2013-09-17 21:24:00,
2013-09-17 17:25:00,72.7,60.7,30.18,SSE,161,0.0,0.0,66,0.00,,,0.00,Wunderground v.1.15,2013-09-17 21:25:00,
2013-09-17 17:26:00,72.7,60.7,30.18,SSE,161,0.0,0.0,66,0.00,,,0.00,Wunderground v.1.15,2013-09-17 21:26:00,
2013-09-17 17:28:00,72.6,61.4,30.18,SSE,161,0.0,0.0,68,0.00,,,0.00,Wunderground v.1.15,2013-09-17 21:28:00,
2013-09-17 17:30:00,72.5,61.3,30.18,SSE,161,0.0,0.0,68,0.00,,,0.00,Wunderground v.1.15,2013-09-17 21:30:00,
2013-09-17 17:34:00,72.4,60.8,30.18,SSE,161,0.0,0.0,67,0.00,,,0.00,Wunderground v.1.15,2013-09-17 21:34:00,
2013-09-17 17:36:00,72.4,60.8,30.18,SSE,161,0.0,0.0,67,0.00,,,0.00,Wunderground v.1.15,2013-09-17 21:36:00,
2013-09-17 17:38:00,72.5,59.6,30.18,SSE,161,0.0,0.0,64,0.00,,,0.00,Wunderground v.1.15,2013-09-17 21:38:00,
2013-09-17 17:40:00,72.6,60.6,30.18,SSE,161,0.0,0.0,66,0.00,,,0.00,Wunderground v.1.15,2013-09-17 21:40:00,
2013-09-17 17:42:00,72.7,61.5,30.18,SSE,161,0.0,0.0,68,0.00,,,0.00,Wunderground v.1.15,2013-09-17 21:42:00,
2013-09-17 17:46:00,72.9,61.3,30.18,SSE,161,0.0,0.0,67,0.00,,,0.00,Wunderground v.1.15,2013-09-17 21:46:00,
2013-09-17 17:48:00,72.9,60.9,30.18,SSE,161,0.0,0.0,66,0.00,,,0.00,Wunderground v.1.15,2013-09-17 21:48:00,
2013-09-17 17:50:00,72.9,60.9,30.18,SSE,161,0.0,0.0,66,0.00,,,0.00,Wunderground v.1.15,2013-09-17 21:50:00,
2013-09-17 17:53:00,72.9,60.9,30.18,SSE,161,0.0,0.0,66,0.00,,,0.00,Wunderground v.1.15,2013-09-17 21:53:00,
2013-09-17 17:54:00,72.8,60.8,30.18,SSE,161,0.0,0.0,66,0.00,,,0.00,Wunderground v.1.15,2013-09-17 21:54:00,
2013-09-17 17:55:00,72.7,61.1,30.18,SSE,161,0.0,0.0,67,0.00,,,0.00,Wunderground v.1.15,2013-09-17 21:55:00,
2013-09-17 18:00:00,72.5,61.3,30.17,SSE,161,0.0,0.0,68,0.00,,,0.00,Wunderground v.1.15,2013-09-17 22:00:00,
2013-09-17 18:03:00,72.3,61.6,30.17,SSE,161,0.0,0.0,69,0.00,,,0.00,Wunderground v.1.15,2013-09-17 22:03:00,
2013-09-17 18:05:00,72.2,61.5,30.17,SSE,161,0.0,0.0,69,0.00,,,0.00,Wunderground v.1.15,2013-09-17 22:05:00,
2013-09-17 18:08:00,72.2,61.0,30.17,SSE,161,0.0,0.0,68,0.00,,,0.00,Wunderground v.1.15,2013-09-17 22:08:00,
2013-09-17 18:10:00,72.2,61.0,30.17,SSE,161,0.0,0.0,68,0.00,,,0.00,Wunderground v.1.15,2013-09-17 22:10:00,
2013-09-17 18:11:00,72.2,60.6,30.17,SSE,161,0.0,0.0,67,0.00,,,0.00,Wunderground v.1.15,2013-09-17 22:11:00,
2013-09-17 18:14:00,72.4,60.0,30.17,SSE,161,0.0,0.0,65,0.00,,,0.00,Wunderground v.1.15,2013-09-17 22:14:00,
2013-09-17 18:15:00,72.5,61.7,30.17,SSE,161,0.0,0.0,69,0.00,,,0.00,Wunderground v.1.15,2013-09-17 22:15:00,
2013-09-17 18:19:00,72.5,61.3,30.17,SSE,161,0.0,0.0,68,0.00,,,0.00,Wunderground v.1.15,2013-09-17 22:19:00,
2013-09-17 18:21:00,72.5,60.9,30.17,SSE,161,0.0,0.0,67,0.00,,,0.00,Wunderground v.1.15,2013-09-17 22:21:00,
2013-09-17 18:23:00,72.6,61.0,30.17,ESE,115,0.0,1.0,67,0.00,,,0.00,Wunderground v.1.15,2013-09-17 22:23:00,
2013-09-17 18:25:00,72.6,60.6,30.17,ESE,115,0.0,1.0,66,0.00,,,0.00,Wunderground v.1.15,2013-09-17 22:25:00,
2013-09-17 18:27:00,72.6,61.8,30.17,ESE,115,0.0,0.0,69,0.00,,,0.00,Wunderground v.1.15,2013-09-17 22:27:00,
2013-09-17 18:28:00,72.6,61.8,30.17,ESE,115,0.0,0.0,69,0.00,,,0.00,Wunderground v.1.15,2013-09-17 22:28:00,
2013-09-17 18:33:00,72.5,61.7,30.17,ESE,115,0.0,0.0,69,0.00,,,0.00,Wunderground v.1.15,2013-09-17 22:33:00,
2013-09-17 18:34:00,72.4,62.1,30.17,ESE,115,0.0,0.0,70,0.00,,,0.00,Wunderground v.1.15,2013-09-17 22:34:00,
2013-09-17 18:38:00,72.4,61.7,30.17,ESE,115,0.0,0.0,69,0.00,,,0.00,Wunderground v.1.15,2013-09-17 22:38:00,
2013-09-17 18:39:00,72.4,61.7,30.17,ESE,111,0.0,0.0,69,0.00,,,0.00,Wunderground v.1.15,2013-09-17 22:39:00,
2013-09-17 18:40:00,72.3,61.6,30.17,ESE,111,0.0,0.0,69,0.00,,,0.00,Wunderground v.1.15,2013-09-17 22:40:00,
2013-09-17 18:42:00,72.3,61.1,30.17,ESE,111,0.0,0.0,68,0.00,,,0.00,Wunderground v.1.15,2013-09-17 22:42:00,
2013-09-17 18:45:00,72.2,61.0,30.17,ESE,111,0.0,0.0,68,0.00,,,0.00,Wunderground v.1.15,2013-09-17 22:45:00,
2013-09-17 18:46:00,72.2,61.5,30.17,ESE,111,0.0,0.0,69,0.00,,,0.00,Wunderground v.1.15,2013-09-17 22:46:00,
2013-09-17 18:50:00,72.1,61.4,30.17,ESE,111,0.0,0.0,69,0.00,,,0.00,Wunderground v.1.15,2013-09-17 22:50:00,
2013-09-17 18:52:00,72.1,61.0,30.17,ESE,111,0.0,0.0,68,0.00,,,0.00,Wunderground v.1.15,2013-09-17 22:52:00,
2013-09-17 18:53:00,72.1,61.0,30.17,ESE,111,0.0,0.0,68,0.00,,,0.00,Wunderground v.1.15,2013-09-17 22:53:00,
2013-09-17 18:56:00,71.9,61.2,30.17,ESE,111,0.0,0.0,69,0.00,,,0.00,Wunderground v.1.15,2013-09-17 22:56:00,
2013-09-17 18:58:00,71.9,61.2,30.16,ESE,111,0.0,0.0,69,0.00,,,0.00,Wunderground v.1.15,2013-09-17 22:58:00,
2013-09-17 18:59:00,71.8,61.1,30.16,ESE,111,0.0,0.0,69,0.00,,,0.00,Wunderground v.1.15,2013-09-17 22:59:00,
2013-09-17 19:00:00,71.7,61.0,30.17,ESE,111,0.0,0.0,69,0.00,,,0.00,Wunderground v.1.15,2013-09-17 23:00:00,
2013-09-17 19:05:00,71.3,61.4,30.16,ESE,111,0.0,0.0,71,0.00,,,0.00,Wunderground v.1.15,2013-09-17 23:05:00,
2013-09-17 19:07:00,71.2,61.3,30.16,ESE,111,0.0,0.0,71,0.00,,,0.00,Wunderground v.1.15,2013-09-17 23:07:00,
2013-09-17 19:10:00,70.9,61.4,30.16,ESE,111,0.0,0.0,72,0.00,,,0.00,Wunderground v.1.15,2013-09-17 23:10:00,
2013-09-17 19:11:00,70.8,61.3,30.16,ESE,111,0.0,0.0,72,0.00,,,0.00,Wunderground v.1.15,2013-09-17 23:11:00,
2013-09-17 19:15:00,70.5,61.4,30.16,ESE,111,0.0,0.0,73,0.00,,,0.00,Wunderground v.1.15,2013-09-17 23:15:00,
2013-09-17 19:16:00,70.4,60.9,30.16,ESE,111,0.0,0.0,72,0.00,,,0.00,Wunderground v.1.15,2013-09-17 23:16:00,
2013-09-17 19:22:00,70.1,61.0,30.16,ESE,111,0.0,0.0,73,0.00,,,0.00,Wunderground v.1.15,2013-09-17 23:22:00,
2013-09-17 19:23:00,69.9,60.8,30.16,ESE,111,0.0,0.0,73,0.00,,,0.00,Wunderground v.1.15,2013-09-17 23:23:00,
2013-09-17 19:25:00,69.7,60.7,30.16,ESE,111,0.0,0.0,73,0.00,,,0.00,Wunderground v.1.15,2013-09-17 23:25:00,
2013-09-17 19:29:00,69.4,60.8,30.16,East,91,0.0,0.0,74,0.00,,,0.00,Wunderground v.1.15,2013-09-17 23:29:00,
2013-09-17 19:30:00,69.2,60.9,30.16,NW,326,0.0,0.0,75,0.00,,,0.00,Wunderground v.1.15,2013-09-17 23:30:00,
2013-09-17 19:33:00,68.9,60.3,30.16,NW,326,0.0,0.0,74,0.00,,,0.00,Wunderground v.1.15,2013-09-17 23:33:00,
2013-09-17 19:36:00,68.7,60.1,30.16,NW,326,0.0,0.0,74,0.00,,,0.00,Wunderground v.1.15,2013-09-17 23:36:00,
2013-09-17 19:37:00,68.5,59.9,30.16,NW,326,0.0,0.0,74,0.00,,,0.00,Wunderground v.1.15,2013-09-17 23:37:00,
2013-09-17 19:39:00,68.4,60.5,30.16,NW,326,0.0,0.0,76,0.00,,,0.00,Wunderground v.1.15,2013-09-17 23:39:00,
2013-09-17 19:40:00,68.3,60.4,30.16,NW,326,0.0,0.0,76,0.00,,,0.00,Wunderground v.1.15,2013-09-17 23:40:00,
2013-09-17 19:46:00,67.9,60.4,30.16,NW,326,0.0,0.0,77,0.00,,,0.00,Wunderground v.1.15,2013-09-17 23:46:00,
2013-09-17 19:48:00,67.8,60.3,30.16,NW,326,0.0,0.0,77,0.00,,,0.00,Wunderground v.1.15,2013-09-17 23:48:00,
2013-09-17 19:51:00,67.6,60.1,30.16,NW,326,0.0,0.0,77,0.00,,,0.00,Wunderground v.1.15,2013-09-17 23:51:00,
2013-09-17 19:53:00,67.4,59.9,30.16,NW,326,0.0,0.0,77,0.00,,,0.00,Wunderground v.1.15,2013-09-17 23:53:00,
2013-09-17 19:56:00,67.3,59.8,30.16,NW,326,0.0,0.0,77,0.00,,,0.00,Wunderground v.1.15,2013-09-17 23:56:00,
2013-09-17 19:57:00,67.2,59.4,30.16,NW,326,0.0,0.0,76,0.00,,,0.00,Wunderground v.1.15,2013-09-17 23:57:00,
2013-09-17 19:58:00,67.2,59.4,30.16,NW,326,0.0,0.0,76,0.00,,,0.00,Wunderground v.1.15,2013-09-17 23:58:00,
2013-09-17 20:01:00,67.0,58.8,30.16,NW,326,0.0,0.0,75,0.00,,,0.00,Wunderground v.1.15,2013-09-18 00:01:00,
2013-09-17 20:05:00,66.9,58.7,30.16,NW,326,0.0,0.0,75,0.00,,,0.00,Wunderground v.1.15,2013-09-18 00:05:00,
2013-09-17 20:06:00,66.8,58.6,30.16,NW,326,0.0,0.0,75,0.00,,,0.00,Wunderground v.1.15,2013-09-18 00:06:00,
2013-09-17 20:08:00,66.8,58.6,30.16,NW,326,0.0,0.0,75,0.00,,,0.00,Wunderground v.1.15,2013-09-18 00:08:00,
2013-09-17 20:11:00,66.7,58.5,30.16,NW,326,0.0,0.0,75,0.00,,,0.00,Wunderground v.1.15,2013-09-18 00:11:00,
2013-09-17 20:15:00,66.6,58.4,30.16,NW,326,0.0,0.0,75,0.00,,,0.00,Wunderground v.1.15,2013-09-18 00:15:00,
2013-09-17 20:16:00,66.6,58.4,30.16,NW,326,0.0,0.0,75,0.00,,,0.00,Wunderground v.1.15,2013-09-18 00:16:00,
2013-09-17 20:18:00,66.6,58.4,30.16,NW,326,0.0,0.0,75,0.00,,,0.00,Wunderground v.1.15,2013-09-18 00:18:00,
2013-09-17 20:20:00,66.5,58.3,30.16,NW,326,0.0,0.0,75,0.00,,,0.00,Wunderground v.1.15,2013-09-18 00:20:00,
2013-09-17 20:25:00,66.5,58.7,30.16,NW,326,0.0,0.0,76,0.00,,,0.00,Wunderground v.1.15,2013-09-18 00:25:00,
2013-09-17 20:27:00,66.5,58.7,30.16,NW,326,0.0,0.0,76,0.00,,,0.00,Wunderground v.1.15,2013-09-18 00:27:00,
2013-09-17 20:29:00,66.4,58.6,30.16,NW,326,0.0,0.0,76,0.00,,,0.00,Wunderground v.1.15,2013-09-18 00:29:00,
2013-09-17 20:34:00,66.4,58.6,30.16,NW,326,0.0,0.0,76,0.00,,,0.00,Wunderground v.1.15,2013-09-18 00:34:00,
2013-09-17 20:36:00,66.4,58.6,30.16,NW,326,0.0,0.0,76,0.00,,,0.00,Wunderground v.1.15,2013-09-18 00:36:00,
2013-09-17 20:39:00,66.3,58.5,30.16,NW,326,0.0,0.0,76,0.00,,,0.00,Wunderground v.1.15,2013-09-18 00:39:00,
2013-09-17 20:40:00,66.3,58.5,30.17,NW,326,0.0,0.0,76,0.00,,,0.00,Wunderground v.1.15,2013-09-18 00:40:00,
2013-09-17 20:44:00,66.3,58.9,30.16,NW,326,0.0,0.0,77,0.00,,,0.00,Wunderground v.1.15,2013-09-18 00:44:00,
2013-09-17 20:45:00,66.3,58.9,30.16,NW,326,0.0,0.0,77,0.00,,,0.00,Wunderground v.1.15,2013-09-18 00:45:00,
2013-09-17 20:46:00,66.3,58.9,30.16,NW,326,0.0,0.0,77,0.00,,,0.00,Wunderground v.1.15,2013-09-18 00:46:00,
2013-09-17 20:50:00,66.3,59.2,30.17,NW,326,0.0,0.0,78,0.00,,,0.00,Wunderground v.1.15,2013-09-18 00:50:00,
2013-09-17 20:52:00,66.3,59.2,30.17,NW,326,0.0,0.0,78,0.00,,,0.00,Wunderground v.1.15,2013-09-18 00:52:00,
2013-09-17 20:53:00,66.3,59.2,30.16,NW,326,0.0,0.0,78,0.00,,,0.00,Wunderground v.1.15,2013-09-18 00:53:00,
2013-09-17 20:56:00,66.2,59.1,30.17,NW,326,0.0,0.0,78,0.00,,,0.00,Wunderground v.1.15,2013-09-18 00:56:00,
2013-09-17 20:59:00,66.2,59.5,30.17,NW,326,0.0,0.0,79,0.00,,,0.00,Wunderground v.1.15,2013-09-18 00:59:00,
2013-09-17 21:00:00,66.2,59.5,30.17,NW,326,0.0,0.0,79,0.00,,,0.00,Wunderground v.1.15,2013-09-18 01:00:00,
2013-09-17 21:02:00,66.2,59.5,30.17,NW,326,0.0,0.0,79,0.00,,,0.00,Wunderground v.1.15,2013-09-18 01:02:00,
2013-09-17 21:05:00,66.1,59.4,30.17,NW,326,0.0,0.0,79,0.00,,,0.00,Wunderground v.1.15,2013-09-18 01:05:00,
2013-09-17 21:07:00,66.1,59.4,30.17,NW,326,0.0,0.0,79,0.00,,,0.00,Wunderground v.1.15,2013-09-18 01:07:00,
2013-09-17 21:08:00,66.1,59.4,30.17,NW,326,0.0,0.0,79,0.00,,,0.00,Wunderground v.1.15,2013-09-18 01:08:00,
2013-09-17 21:11:00,66.0,59.3,30.17,NW,326,0.0,0.0,79,0.00,,,0.00,Wunderground v.1.15,2013-09-18 01:11:00,
2013-09-17 21:14:00,65.9,59.2,30.17,NW,326,0.0,0.0,79,0.00,,,0.00,Wunderground v.1.15,2013-09-18 01:14:00,
2013-09-17 21:17:00,65.8,59.5,30.17,NW,326,0.0,0.0,80,0.00,,,0.00,Wunderground v.1.15,2013-09-18 01:17:00,
2013-09-17 21:22:00,65.6,59.3,30.17,NW,326,0.0,0.0,80,0.00,,,0.00,Wunderground v.1.15,2013-09-18 01:22:00,
2013-09-17 21:26:00,65.5,59.2,30.17,NW,326,0.0,0.0,80,0.00,,,0.00,Wunderground v.1.15,2013-09-18 01:26:00,
2013-09-17 21:29:00,65.4,59.1,30.17,NW,326,0.0,0.0,80,0.00,,,0.00,Wunderground v.1.15,2013-09-18 01:29:00,
2013-09-17 21:31:00,65.3,59.0,30.17,NW,326,0.0,0.0,80,0.00,,,0.00,Wunderground v.1.15,2013-09-18 01:31:00,
2013-09-17 21:34:00,65.2,58.9,30.17,NW,326,0.0,0.0,80,0.00,,,0.00,Wunderground v.1.15,2013-09-18 01:34:00,
2013-09-17 21:36:00,65.2,58.9,30.17,NW,326,0.0,0.0,80,0.00,,,0.00,Wunderground v.1.15,2013-09-18 01:36:00,
2013-09-17 21:39:00,65.1,59.1,30.17,NW,326,0.0,0.0,81,0.00,,,0.00,Wunderground v.1.15,2013-09-18 01:39:00,
2013-09-17 21:41:00,65.0,59.0,30.17,NW,326,0.0,0.0,81,0.00,,,0.00,Wunderground v.1.15,2013-09-18 01:41:00,
2013-09-17 21:42:00,64.9,58.9,30.17,NW,326,0.0,0.0,81,0.00,,,0.00,Wunderground v.1.15,2013-09-18 01:42:00,
2013-09-17 21:44:00,64.9,58.9,30.17,NW,326,0.0,0.0,81,0.00,,,0.00,Wunderground v.1.15,2013-09-18 01:44:00,
2013-09-17 21:46:00,64.8,58.8,30.17,NW,326,0.0,0.0,81,0.00,,,0.00,Wunderground v.1.15,2013-09-18 01:46:00,
2013-09-17 21:49:00,64.7,58.7,30.17,NW,326,0.0,0.0,81,0.00,,,0.00,Wunderground v.1.15,2013-09-18 01:49:00,
2013-09-17 21:51:00,64.6,58.6,30.17,NW,326,0.0,0.0,81,0.00,,,0.00,Wunderground v.1.15,2013-09-18 01:51:00,
2013-09-17 21:54:00,64.5,58.9,30.17,NW,326,0.0,0.0,82,0.00,,,0.00,Wunderground v.1.15,2013-09-18 01:54:00,
2013-09-17 21:57:00,64.3,58.7,30.17,NW,326,0.0,0.0,82,0.00,,,0.00,Wunderground v.1.15,2013-09-18 01:57:00,
2013-09-17 22:00:00,64.1,58.5,30.17,NW,326,0.0,0.0,82,0.00,,,0.00,Wunderground v.1.15,2013-09-18 02:00:00,
2013-09-17 22:03:00,64.0,58.4,30.17,NW,326,0.0,0.0,82,0.00,,,0.00,Wunderground v.1.15,2013-09-18 02:03:00,
2013-09-17 22:05:00,63.9,58.3,30.17,NW,326,0.0,0.0,82,0.00,,,0.00,Wunderground v.1.15,2013-09-18 02:05:00,
2013-09-17 22:08:00,63.8,58.2,30.17,NW,326,0.0,0.0,82,0.00,,,0.00,Wunderground v.1.15,2013-09-18 02:08:00,
2013-09-17 22:09:00,63.7,58.1,30.17,NW,326,0.0,0.0,82,0.00,,,0.00,Wunderground v.1.15,2013-09-18 02:09:00,
2013-09-17 22:12:00,63.6,58.0,30.17,NW,326,0.0,0.0,82,0.00,,,0.00,Wunderground v.1.15,2013-09-18 02:12:00,
2013-09-17 22:16:00,63.5,58.2,30.17,NW,326,0.0,0.0,83,0.00,,,0.00,Wunderground v.1.15,2013-09-18 02:16:00,
2013-09-17 22:18:00,63.4,58.1,30.17,NW,326,0.0,0.0,83,0.00,,,0.00,Wunderground v.1.15,2013-09-18 02:18:00,
2013-09-17 22:22:00,63.3,58.0,30.17,NW,326,0.0,0.0,83,0.00,,,0.00,Wunderground v.1.15,2013-09-18 02:22:00,
2013-09-17 22:23:00,63.2,58.3,30.17,NW,326,0.0,0.0,84,0.00,,,0.00,Wunderground v.1.15,2013-09-18 02:23:00,
2013-09-17 22:24:00,63.2,58.3,30.17,NW,326,0.0,0.0,84,0.00,,,0.00,Wunderground v.1.15,2013-09-18 02:24:00,
2013-09-17 22:25:00,63.2,58.3,30.17,NW,326,0.0,0.0,84,0.00,,,0.00,Wunderground v.1.15,2013-09-18 02:25:00,
2013-09-17 22:31:00,63.0,58.1,30.17,NW,326,0.0,0.0,84,0.00,,,0.00,Wunderground v.1.15,2013-09-18 02:31:00,
2013-09-17 22:32:00,62.9,58.0,30.17,NW,326,0.0,0.0,84,0.00,,,0.00,Wunderground v.1.15,2013-09-18 02:32:00,
2013-09-17 22:34:00,62.8,57.9,30.17,NW,326,0.0,0.0,84,0.00,,,0.00,Wunderground v.1.15,2013-09-18 02:34:00,
2013-09-17 22:37:00,62.7,57.8,30.17,NW,326,0.0,0.0,84,0.00,,,0.00,Wunderground v.1.15,2013-09-18 02:37:00,
2013-09-17 22:39:00,62.6,57.7,30.17,NW,326,0.0,0.0,84,0.00,,,0.00,Wunderground v.1.15,2013-09-18 02:39:00,
2013-09-17 22:40:00,62.5,57.6,30.17,NW,326,0.0,0.0,84,0.00,,,0.00,Wunderground v.1.15,2013-09-18 02:40:00,
2013-09-17 22:44:00,62.4,57.8,30.17,NW,326,0.0,0.0,85,0.00,,,0.00,Wunderground v.1.15,2013-09-18 02:44:00,
2013-09-17 22:46:00,62.3,57.7,30.17,NW,326,0.0,0.0,85,0.00,,,0.00,Wunderground v.1.15,2013-09-18 02:46:00,
2013-09-17 22:47:00,62.3,57.7,30.17,NW,326,0.0,0.0,85,0.00,,,0.00,Wunderground v.1.15,2013-09-18 02:47:00,
2013-09-17 22:49:00,62.2,57.6,30.17,NW,326,0.0,0.0,85,0.00,,,0.00,Wunderground v.1.15,2013-09-18 02:49:00,
2013-09-17 22:51:00,62.2,57.3,30.17,NW,326,0.0,0.0,84,0.00,,,0.00,Wunderground v.1.15,2013-09-18 02:51:00,
2013-09-17 22:52:00,62.1,57.2,30.17,NW,326,0.0,0.0,84,0.00,,,0.00,Wunderground v.1.15,2013-09-18 02:52:00,
2013-09-17 22:54:00,62.0,57.1,30.17,NW,326,0.0,0.0,84,0.00,,,0.00,Wunderground v.1.15,2013-09-18 02:54:00,
2013-09-17 22:58:00,61.9,57.0,30.17,NW,326,0.0,0.0,84,0.00,,,0.00,Wunderground v.1.15,2013-09-18 02:58:00,
2013-09-17 23:01:00,61.8,57.2,30.17,NW,326,0.0,0.0,85,0.00,,,0.00,Wunderground v.1.15,2013-09-18 03:01:00,
2013-09-17 23:03:00,61.8,57.6,30.17,NW,326,0.0,0.0,86,0.00,,,0.00,Wunderground v.1.15,2013-09-18 03:03:00,
2013-09-17 23:05:00,61.7,57.5,30.17,NW,326,0.0,0.0,86,0.00,,,0.00,Wunderground v.1.15,2013-09-18 03:05:00,
2013-09-17 23:06:00,61.7,57.5,30.17,NW,326,0.0,0.0,86,0.00,,,0.00,Wunderground v.1.15,2013-09-18 03:06:00,
2013-09-17 23:08:00,61.6,57.4,30.17,NW,326,0.0,0.0,86,0.00,,,0.00,Wunderground v.1.15,2013-09-18 03:08:00,
2013-09-17 23:09:00,61.6,57.4,30.17,NW,326,0.0,0.0,86,0.00,,,0.00,Wunderground v.1.15,2013-09-18 03:09:00,
2013-09-17 23:12:00,61.6,57.4,30.17,NW,326,0.0,0.0,86,0.00,,,0.00,Wunderground v.1.15,2013-09-18 03:12:00,
2013-09-17 23:14:00,61.5,57.3,30.17,NW,326,0.0,0.0,86,0.00,,,0.00,Wunderground v.1.15,2013-09-18 03:14:00,
2013-09-17 23:15:00,61.5,57.3,30.17,NW,326,0.0,0.0,86,0.00,,,0.00,Wunderground v.1.15,2013-09-18 03:15:00,
2013-09-17 23:16:00,61.4,57.2,30.17,NW,326,0.0,0.0,86,0.00,,,0.00,Wunderground v.1.15,2013-09-18 03:16:00,
2013-09-17 23:17:00,61.4,57.2,30.17,NW,326,0.0,0.0,86,0.00,,,0.00,Wunderground v.1.15,2013-09-18 03:17:00,
2013-09-17 23:20:00,61.4,57.2,30.17,NW,326,0.0,0.0,86,0.00,,,0.00,Wunderground v.1.15,2013-09-18 03:20:00,
2013-09-17 23:24:00,61.4,57.5,30.17,NW,326,0.0,0.0,87,0.00,,,0.00,Wunderground v.1.15,2013-09-18 03:24:00,
2013-09-17 23:26:00,61.4,57.5,30.17,NW,326,0.0,0.0,87,0.00,,,0.00,Wunderground v.1.15,2013-09-18 03:26:00,
2013-09-17 23:28:00,61.4,57.5,30.17,NW,326,0.0,0.0,87,0.00,,,0.00,Wunderground v.1.15,2013-09-18 03:28:00,
2013-09-17 23:31:00,61.4,57.8,30.17,NW,326,0.0,0.0,88,0.00,,,0.00,Wunderground v.1.15,2013-09-18 03:31:00,
2013-09-17 23:33:00,61.4,57.5,30.17,NW,326,0.0,0.0,87,0.00,,,0.00,Wunderground v.1.15,2013-09-18 03:33:00,
2013-09-17 23:34:00,61.4,57.8,30.17,NW,326,0.0,0.0,88,0.00,,,0.00,Wunderground v.1.15,2013-09-18 03:34:00,
2013-09-17 23:36:00,61.4,57.8,30.17,NW,326,0.0,0.0,88,0.00,,,0.00,Wunderground v.1.15,2013-09-18 03:36:00,
2013-09-17 23:37:00,61.3,57.7,30.17,NW,326,0.0,0.0,88,0.00,,,0.00,Wunderground v.1.15,2013-09-18 03:37:00,
2013-09-17 23:39:00,61.3,57.7,30.17,NW,326,0.0,0.0,88,0.00,,,0.00,Wunderground v.1.15,2013-09-18 03:39:00,
2013-09-17 23:41:00,61.3,57.7,30.17,NW,326,0.0,0.0,88,0.00,,,0.00,Wunderground v.1.15,2013-09-18 03:41:00,
2013-09-17 23:42:00,61.3,57.7,30.17,NW,326,0.0,0.0,88,0.00,,,0.00,Wunderground v.1.15,2013-09-18 03:42:00,
2013-09-17 23:44:00,61.3,57.7,30.17,NW,326,0.0,0.0,88,0.00,,,0.00,Wunderground v.1.15,2013-09-18 03:44:00,
2013-09-17 23:46:00,61.3,58.0,30.17,NW,326,0.0,0.0,89,0.00,,,0.00,Wunderground v.1.15,2013-09-18 03:46:00,
2013-09-17 23:47:00,61.3,58.0,30.17,NW,326,0.0,0.0,89,0.00,,,0.00,Wunderground v.1.15,2013-09-18 03:47:00,
2013-09-17 23:51:00,61.2,57.9,30.17,NW,326,0.0,0.0,89,0.00,,,0.00,Wunderground v.1.15,2013-09-18 03:51:00,
2013-09-17 23:53:00,61.2,57.9,30.17,NW,326,0.0,0.0,89,0.00,,,0.00,Wunderground v.1.15,2013-09-18 03:53:00,
2013-09-17 23:56:00,61.2,57.9,30.17,NW,326,0.0,0.0,89,0.00,,,0.00,Wunderground v.1.15,2013-09-18 03:56:00,
2013-09-17 23:58:00,61.1,58.1,30.17,NW,326,0.0,0.0,90,0.00,,,0.00,Wunderground v.1.15,2013-09-18 03:58:00,